Time,TemperatureF,DewpointF,PressureIn,WindDirection,WindDirectionDegrees,WindSpeedMPH,WindSpeedGustMPH,Humidity,HourlyPrecipIn,Conditions,Clouds,dailyrainin,SoftwareType,DateUTC
2013-09-14 00:00:00,72.9,51.5,29.83,NE,38,6.3,6.3,47,0.00,,---,0.00,VWS V14.01,2013-09-14 04:00:00,
2013-09-14 00:01:00,72.9,51.5,29.83,NE,38,6.3,6.3,47,0.00,,---,0.00,VWS V14.01,2013-09-14 04:01:00,
2013-09-14 00:02:00,72.9,51.5,29.83,NE,39,4.0,4.0,47,0.00,,---,0.00,VWS V14.01,2013-09-14 04:02:00,
2013-09-14 00:06:00,73.0,50.5,29.83,North,5,3.6,3.6,45,0.00,,---,0.00,VWS V14.01,2013-09-14 04:06:00,
2013-09-14 00:07:00,73.0,50.5,29.83,North,5,3.6,3.6,45,0.00,,---,0.00,VWS V14.01,2013-09-14 04:07:00,
2013-09-14 00:11:00,72.7,49.5,29.83,NNW,345,3.6,3.6,44,0.00,,---,0.00,VWS V14.01,2013-09-14 04:11:00,
2013-09-14 00:12:00,72.7,48.9,29.83,NNE,15,8.7,8.7,43,0.00,,---,0.00,VWS V14.01,2013-09-14 04:12:00,
2013-09-14 00:16:00,72.5,48.8,29.83,ENE,78,4.5,6.3,43,0.00,,---,0.00,VWS V14.01,2013-09-14 04:16:00,
2013-09-14 00:17:00,72.3,48.6,29.83,ENE,60,3.6,3.6,43,0.00,,---,0.00,VWS V14.01,2013-09-14 04:17:00,
2013-09-14 00:18:00,72.3,48.6,29.83,East,79,2.7,3.6,43,0.00,,---,0.00,VWS V14.01,2013-09-14 04:18:00,
2013-09-14 00:21:00,72.3,48.6,29.83,North,7,3.6,3.6,43,0.00,,---,0.00,VWS V14.01,2013-09-14 04:21:00,
2013-09-14 00:22:00,72.1,49.0,29.83,North,7,3.6,3.6,44,0.00,,---,0.00,VWS V14.01,2013-09-14 04:22:00,
2013-09-14 00:23:00,72.1,49.0,29.83,NE,41,2.2,3.6,44,0.00,,---,0.00,VWS V14.01,2013-09-14 04:23:00,
2013-09-14 00:26:00,72.1,49.0,29.83,NNE,31,3.6,3.6,44,0.00,,---,0.00,VWS V14.01,2013-09-14 04:26:00,
2013-09-14 00:27:00,72.1,49.0,29.83,North,353,3.1,4.0,44,0.00,,---,0.00,VWS V14.01,2013-09-14 04:27:00,
2013-09-14 00:28:00,72.1,49.0,29.83,North,353,3.1,3.1,44,0.00,,---,0.00,VWS V14.01,2013-09-14 04:28:00,
2013-09-14 00:31:00,71.6,49.2,29.83,North,353,2.7,2.7,45,0.00,,---,0.00,VWS V14.01,2013-09-14 04:31:00,
2013-09-14 00:32:00,71.6,49.2,29.83,North,353,2.7,2.7,45,0.00,,---,0.00,VWS V14.01,2013-09-14 04:32:00,
2013-09-14 00:33:00,71.4,49.0,29.83,North,353,2.7,2.7,45,0.00,,---,0.00,VWS V14.01,2013-09-14 04:33:00,
2013-09-14 00:36:00,71.4,49.0,29.83,North,357,3.1,3.1,45,0.00,,---,0.00,VWS V14.01,2013-09-14 04:36:00,
2013-09-14 00:38:00,71.2,49.4,29.83,North,353,3.1,3.1,46,0.00,,---,0.00,VWS V14.01,2013-09-14 04:38:00,
2013-09-14 00:41:00,71.1,49.3,29.83,North,1,3.6,3.6,46,0.00,,---,0.00,VWS V14.01,2013-09-14 04:41:00,
2013-09-14 00:43:00,71.1,49.3,29.85,NNE,17,5.4,5.4,46,0.00,,---,0.00,VWS V14.01,2013-09-14 04:43:00,
2013-09-14 00:44:00,71.1,49.3,29.85,ESE,118,2.2,5.4,46,0.00,,---,0.00,VWS V14.01,2013-09-14 04:44:00,
2013-09-14 00:46:00,71.1,49.3,29.85,NNE,23,5.4,5.4,46,0.00,,---,0.00,VWS V14.01,2013-09-14 04:46:00,
2013-09-14 00:48:00,71.1,49.3,29.85,NNW,341,2.7,2.7,46,0.00,,---,0.00,VWS V14.01,2013-09-14 04:48:00,
2013-09-14 00:49:00,71.1,49.3,29.85,NNW,341,2.7,2.7,46,0.00,,---,0.00,VWS V14.01,2013-09-14 04:49:00,
2013-09-14 00:51:00,71.1,49.3,29.85,North,357,4.9,4.9,46,0.00,,---,0.00,VWS V14.01,2013-09-14 04:51:00,
2013-09-14 00:53:00,71.1,49.3,29.85,NNE,14,3.6,4.0,46,0.00,,---,0.00,VWS V14.01,2013-09-14 04:53:00,
2013-09-14 00:54:00,71.1,49.3,29.85,NNE,14,3.6,4.0,46,0.00,,---,0.00,VWS V14.01,2013-09-14 04:54:00,
2013-09-14 00:56:00,71.1,49.3,29.85,NW,321,2.2,2.2,46,0.00,,---,0.00,VWS V14.01,2013-09-14 04:56:00,
2013-09-14 00:57:00,71.1,49.3,29.85,NNE,28,2.2,2.2,46,0.00,,---,0.00,VWS V14.01,2013-09-14 04:57:00,
2013-09-14 00:58:00,70.5,50.5,29.85,NNE,22,2.2,2.2,49,0.00,,---,0.00,VWS V14.01,2013-09-14 04:58:00,
2013-09-14 00:59:00,70.3,50.3,29.85,NNE,22,2.2,2.2,49,0.00,,---,0.00,VWS V14.01,2013-09-14 04:59:00,
2013-09-14 01:01:00,70.3,50.3,29.85,NNE,22,2.2,2.2,49,0.00,,---,0.00,VWS V14.01,2013-09-14 05:01:00,
2013-09-14 01:02:00,70.3,50.3,29.85,North,353,0.0,2.2,49,0.00,,---,0.00,VWS V14.01,2013-09-14 05:02:00,
2013-09-14 01:03:00,70.3,50.8,29.85,North,353,0.0,0.0,50,0.00,,---,0.00,VWS V14.01,2013-09-14 05:03:00,
2013-09-14 01:04:00,70.2,50.7,29.85,North,353,0.0,0.0,50,0.00,,---,0.00,VWS V14.01,2013-09-14 05:04:00,
2013-09-14 01:06:00,70.2,50.7,29.85,NE,46,2.7,2.7,50,0.00,,---,0.00,VWS V14.01,2013-09-14 05:06:00,
2013-09-14 01:07:00,70.2,50.7,29.85,NE,35,0.0,2.7,50,0.00,,---,0.00,VWS V14.01,2013-09-14 05:07:00,
2013-09-14 01:09:00,70.2,50.7,29.85,NE,38,3.6,3.6,50,0.00,,---,0.00,VWS V14.01,2013-09-14 05:09:00,
2013-09-14 01:10:00,70.2,50.7,29.85,NE,55,4.0,4.0,50,0.00,,---,0.00,VWS V14.01,2013-09-14 05:10:00,
2013-09-14 01:11:00,70.2,50.7,29.85,ENE,60,0.0,4.0,50,0.00,,---,0.00,VWS V14.01,2013-09-14 05:11:00,
2013-09-14 01:12:00,70.2,50.7,29.85,ENE,60,0.0,0.0,50,0.00,,---,0.00,VWS V14.01,2013-09-14 05:12:00,
2013-09-14 01:14:00,70.0,51.0,29.85,ENE,60,0.0,0.0,51,0.00,,---,0.00,VWS V14.01,2013-09-14 05:14:00,
2013-09-14 01:15:00,69.8,50.9,29.85,ENE,60,0.0,0.0,51,0.00,,---,0.00,VWS V14.01,2013-09-14 05:15:00,
2013-09-14 01:16:00,69.8,50.9,29.85,NNW,331,3.1,3.1,51,0.00,,---,0.00,VWS V14.01,2013-09-14 05:16:00,
2013-09-14 01:17:00,69.8,50.9,29.85,NNW,331,3.1,3.1,51,0.00,,---,0.00,VWS V14.01,2013-09-14 05:17:00,
2013-09-14 01:19:00,69.8,51.4,29.85,North,357,4.0,4.0,52,0.00,,---,0.00,VWS V14.01,2013-09-14 05:19:00,
2013-09-14 01:20:00,69.8,51.4,29.85,North,357,4.0,4.0,52,0.00,,---,0.00,VWS V14.01,2013-09-14 05:20:00,
2013-09-14 01:21:00,69.8,51.4,29.85,North,357,3.1,3.1,52,0.00,,---,0.00,VWS V14.01,2013-09-14 05:21:00,
2013-09-14 01:22:00,69.6,51.2,29.85,North,357,3.1,3.1,52,0.00,,---,0.00,VWS V14.01,2013-09-14 05:22:00,
2013-09-14 01:25:00,69.6,51.2,29.85,North,0,2.7,2.7,52,0.00,,---,0.00,VWS V14.01,2013-09-14 05:25:00,
2013-09-14 01:26:00,69.6,51.2,29.85,NNW,341,5.4,5.4,52,0.00,,---,0.00,VWS V14.01,2013-09-14 05:26:00,
2013-09-14 01:27:00,69.6,51.2,29.85,NNW,341,5.4,5.4,52,0.00,,---,0.00,VWS V14.01,2013-09-14 05:27:00,
2013-09-14 01:30:00,69.4,51.1,29.85,NNW,339,3.1,3.1,52,0.00,,---,0.00,VWS V14.01,2013-09-14 05:30:00,
2013-09-14 01:31:00,69.4,51.1,29.85,NNW,339,3.1,3.1,52,0.00,,---,0.00,VWS V14.01,2013-09-14 05:31:00,
2013-09-14 01:32:00,69.4,51.1,29.85,NNW,339,3.1,3.1,52,0.00,,---,0.00,VWS V14.01,2013-09-14 05:32:00,
2013-09-14 01:35:00,69.3,51.4,29.85,NNW,339,0.0,2.2,53,0.00,,---,0.00,VWS V14.01,2013-09-14 05:35:00,
2013-09-14 01:36:00,69.3,51.4,29.85,NNW,339,0.0,0.0,53,0.00,,---,0.00,VWS V14.01,2013-09-14 05:36:00,
2013-09-14 01:37:00,69.3,51.4,29.85,NNW,339,0.0,0.0,53,0.00,,---,0.00,VWS V14.01,2013-09-14 05:37:00,
2013-09-14 01:40:00,69.3,51.4,29.85,NNW,339,0.0,0.0,53,0.00,,---,0.00,VWS V14.01,2013-09-14 05:40:00,
2013-09-14 01:41:00,69.3,51.4,29.85,NNW,339,0.0,0.0,53,0.00,,---,0.00,VWS V14.01,2013-09-14 05:41:00,
2013-09-14 01:42:00,69.3,51.4,29.85,NNW,339,0.0,0.0,53,0.00,,---,0.00,VWS V14.01,2013-09-14 05:42:00,
2013-09-14 01:46:00,69.3,52.4,29.85,North,0,2.7,2.7,55,0.00,,---,0.00,VWS V14.01,2013-09-14 05:46:00,
2013-09-14 01:47:00,69.3,52.4,29.85,North,0,0.0,0.0,55,0.00,,---,0.00,VWS V14.01,2013-09-14 05:47:00,
2013-09-14 01:51:00,69.3,52.4,29.85,North,353,3.6,3.6,55,0.00,,---,0.00,VWS V14.01,2013-09-14 05:51:00,
2013-09-14 01:52:00,69.3,51.9,29.85,North,353,3.6,3.6,54,0.00,,---,0.00,VWS V14.01,2013-09-14 05:52:00,
2013-09-14 01:56:00,69.3,51.9,29.85,NE,45,0.0,3.1,54,0.00,,---,0.00,VWS V14.01,2013-09-14 05:56:00,
2013-09-14 01:57:00,69.3,51.9,29.85,NE,45,0.0,0.0,54,0.00,,---,0.00,VWS V14.01,2013-09-14 05:57:00,
2013-09-14 02:01:00,69.3,51.9,29.85,NE,55,2.2,2.2,54,0.00,,---,0.00,VWS V14.01,2013-09-14 06:01:00,
2013-09-14 02:02:00,69.3,51.9,29.85,NE,55,0.0,0.0,54,0.00,,---,0.00,VWS V14.01,2013-09-14 06:02:00,
2013-09-14 02:06:00,69.3,51.4,29.85,ESE,106,0.0,0.0,53,0.00,,---,0.00,VWS V14.01,2013-09-14 06:06:00,
2013-09-14 02:07:00,69.1,51.2,29.85,ESE,106,0.0,0.0,53,0.00,,---,0.00,VWS V14.01,2013-09-14 06:07:00,
2013-09-14 02:08:00,69.1,51.2,29.85,ESE,106,0.0,0.0,53,0.00,,---,0.00,VWS V14.01,2013-09-14 06:08:00,
2013-09-14 02:11:00,69.1,51.2,29.85,ENE,75,3.1,3.1,53,0.00,,---,0.00,VWS V14.01,2013-09-14 06:11:00,
2013-09-14 02:12:00,69.1,51.2,29.85,ENE,60,2.2,2.2,53,0.00,,---,0.00,VWS V14.01,2013-09-14 06:12:00,
2013-09-14 02:13:00,69.1,51.2,29.85,ENE,60,0.0,0.0,53,0.00,,---,0.00,VWS V14.01,2013-09-14 06:13:00,
2013-09-14 02:16:00,69.1,51.2,29.85,ESE,112,0.0,0.0,53,0.00,,---,0.00,VWS V14.01,2013-09-14 06:16:00,
2013-09-14 02:17:00,69.1,51.2,29.85,East,98,0.0,0.0,53,0.00,,---,0.00,VWS V14.01,2013-09-14 06:17:00,
2013-09-14 02:18:00,69.1,51.2,29.85,East,98,0.0,0.0,53,0.00,,---,0.00,VWS V14.01,2013-09-14 06:18:00,
2013-09-14 02:21:00,68.9,51.6,29.85,East,97,0.0,0.0,54,0.00,,---,0.00,VWS V14.01,2013-09-14 06:21:00,
2013-09-14 02:22:00,68.9,51.6,29.85,North,10,3.6,3.6,54,0.00,,---,0.00,VWS V14.01,2013-09-14 06:22:00,
2013-09-14 02:23:00,68.9,51.6,29.85,North,10,3.6,3.6,54,0.00,,---,0.00,VWS V14.01,2013-09-14 06:23:00,
2013-09-14 02:26:00,68.9,51.6,29.83,North,353,2.2,2.2,54,0.00,,---,0.00,VWS V14.01,2013-09-14 06:26:00,
2013-09-14 02:27:00,68.9,51.6,29.83,North,353,2.2,2.2,54,0.00,,---,0.00,VWS V14.01,2013-09-14 06:27:00,
2013-09-14 02:28:00,68.9,51.6,29.83,North,353,2.2,2.2,54,0.00,,---,0.00,VWS V14.01,2013-09-14 06:28:00,
2013-09-14 02:31:00,68.7,50.9,29.83,North,353,0.0,0.0,53,0.00,,---,0.00,VWS V14.01,2013-09-14 06:31:00,
2013-09-14 02:32:00,68.7,50.9,29.83,North,353,0.0,0.0,53,0.00,,---,0.00,VWS V14.01,2013-09-14 06:32:00,
2013-09-14 02:33:00,68.7,50.9,29.83,North,353,0.0,0.0,53,0.00,,---,0.00,VWS V14.01,2013-09-14 06:33:00,
2013-09-14 02:36:00,68.7,50.9,29.83,North,353,0.0,0.0,53,0.00,,---,0.00,VWS V14.01,2013-09-14 06:36:00,
2013-09-14 02:38:00,68.7,50.9,29.83,North,353,0.0,0.0,53,0.00,,---,0.00,VWS V14.01,2013-09-14 06:38:00,
2013-09-14 02:39:00,68.4,50.6,29.83,North,353,0.0,0.0,53,0.00,,---,0.00,VWS V14.01,2013-09-14 06:39:00,
2013-09-14 02:41:00,68.4,51.1,29.83,North,353,0.0,0.0,54,0.00,,---,0.00,VWS V14.01,2013-09-14 06:41:00,
2013-09-14 02:43:00,68.4,51.1,29.85,North,353,0.0,0.0,54,0.00,,---,0.00,VWS V14.01,2013-09-14 06:43:00,
2013-09-14 02:44:00,68.4,51.1,29.85,North,353,0.0,0.0,54,0.00,,---,0.00,VWS V14.01,2013-09-14 06:44:00,
2013-09-14 02:46:00,68.4,51.1,29.85,North,353,2.7,2.7,54,0.00,,---,0.00,VWS V14.01,2013-09-14 06:46:00,
2013-09-14 02:48:00,68.4,51.1,29.85,North,353,2.7,2.7,54,0.00,,---,0.00,VWS V14.01,2013-09-14 06:48:00,
2013-09-14 02:49:00,68.4,51.1,29.85,North,353,0.0,0.0,54,0.00,,---,0.00,VWS V14.01,2013-09-14 06:49:00,
2013-09-14 02:51:00,68.4,51.1,29.85,North,353,3.1,3.1,54,0.00,,---,0.00,VWS V14.01,2013-09-14 06:51:00,
2013-09-14 02:53:00,68.4,51.1,29.85,North,353,2.2,2.2,54,0.00,,---,0.00,VWS V14.01,2013-09-14 06:53:00,
2013-09-14 02:55:00,68.5,51.8,29.85,NNW,337,3.6,3.6,55,0.00,,---,0.00,VWS V14.01,2013-09-14 06:55:00,
2013-09-14 02:56:00,68.5,51.8,29.85,NNW,337,3.6,3.6,55,0.00,,---,0.00,VWS V14.01,2013-09-14 06:56:00,
2013-09-14 02:58:00,68.5,51.8,29.85,NNW,337,4.9,4.9,55,0.00,,---,0.00,VWS V14.01,2013-09-14 06:58:00,
2013-09-14 03:00:00,68.5,51.8,29.85,North,0,0.0,0.0,55,0.00,,---,0.00,VWS V14.01,2013-09-14 07:00:00,
2013-09-14 03:01:00,68.5,51.8,29.85,North,1,0.0,0.0,55,0.00,,---,0.00,VWS V14.01,2013-09-14 07:01:00,
2013-09-14 03:03:00,68.7,51.9,29.85,ENE,60,2.7,2.7,55,0.00,,---,0.00,VWS V14.01,2013-09-14 07:03:00,
2013-09-14 03:04:00,68.7,51.9,29.85,ENE,60,2.7,2.7,55,0.00,,---,0.00,VWS V14.01,2013-09-14 07:04:00,
2013-09-14 03:06:00,68.9,51.6,29.85,ENE,60,2.7,2.7,54,0.00,,---,0.00,VWS V14.01,2013-09-14 07:06:00,
2013-09-14 03:08:00,68.9,51.6,29.85,North,0,2.2,2.2,54,0.00,,---,0.00,VWS V14.01,2013-09-14 07:08:00,
2013-09-14 03:09:00,68.9,51.6,29.85,North,0,2.2,2.2,54,0.00,,---,0.00,VWS V14.01,2013-09-14 07:09:00,
2013-09-14 03:11:00,69.1,51.2,29.85,North,11,3.1,3.1,53,0.00,,---,0.00,VWS V14.01,2013-09-14 07:11:00,
2013-09-14 03:13:00,69.1,51.2,29.85,North,11,3.1,3.1,53,0.00,,---,0.00,VWS V14.01,2013-09-14 07:13:00,
2013-09-14 03:14:00,69.3,50.9,29.85,North,11,3.1,3.1,52,0.00,,---,0.00,VWS V14.01,2013-09-14 07:14:00,
2013-09-14 03:16:00,69.3,50.9,29.85,North,0,3.6,3.6,52,0.00,,---,0.00,VWS V14.01,2013-09-14 07:16:00,
2013-09-14 03:18:00,69.3,50.9,29.85,NNW,331,0.0,0.0,52,0.00,,---,0.00,VWS V14.01,2013-09-14 07:18:00,
2013-09-14 03:19:00,69.3,50.9,29.85,NNE,25,0.0,0.0,52,0.00,,---,0.00,VWS V14.01,2013-09-14 07:19:00,
2013-09-14 03:20:00,69.3,50.9,29.85,NNE,27,0.0,0.0,52,0.00,,---,0.00,VWS V14.01,2013-09-14 07:20:00,
2013-09-14 03:21:00,69.3,50.9,29.85,NNW,335,0.0,0.0,52,0.00,,---,0.00,VWS V14.01,2013-09-14 07:21:00,
2013-09-14 03:22:00,69.3,50.9,29.85,NNW,335,0.0,0.0,52,0.00,,---,0.00,VWS V14.01,2013-09-14 07:22:00,
2013-09-14 03:23:00,69.3,50.9,29.85,NNW,335,0.0,0.0,52,0.00,,---,0.00,VWS V14.01,2013-09-14 07:23:00,
2013-09-14 03:24:00,69.3,50.9,29.85,North,350,2.2,2.2,52,0.00,,---,0.00,VWS V14.01,2013-09-14 07:24:00,
2013-09-14 03:25:00,69.3,50.9,29.85,North,350,2.2,2.2,52,0.00,,---,0.00,VWS V14.01,2013-09-14 07:25:00,
2013-09-14 03:26:00,69.3,50.9,29.85,North,350,2.2,2.2,52,0.00,,---,0.00,VWS V14.01,2013-09-14 07:26:00,
2013-09-14 03:27:00,69.6,49.6,29.85,North,350,2.2,2.2,49,0.00,,---,0.00,VWS V14.01,2013-09-14 07:27:00,
2013-09-14 03:28:00,69.6,49.6,29.85,North,353,0.0,2.2,49,0.00,,---,0.00,VWS V14.01,2013-09-14 07:28:00,
2013-09-14 03:29:00,69.6,49.6,29.85,North,353,0.0,0.0,49,0.00,,---,0.00,VWS V14.01,2013-09-14 07:29:00,
2013-09-14 03:30:00,69.6,49.6,29.85,NNW,341,0.0,0.0,49,0.00,,---,0.00,VWS V14.01,2013-09-14 07:30:00,
2013-09-14 03:31:00,69.6,49.6,29.85,NNW,341,0.0,0.0,49,0.00,,---,0.00,VWS V14.01,2013-09-14 07:31:00,
2013-09-14 03:32:00,69.6,49.6,29.85,North,0,0.0,0.0,49,0.00,,---,0.00,VWS V14.01,2013-09-14 07:32:00,
2013-09-14 03:33:00,69.6,49.6,29.85,NW,317,0.0,0.0,49,0.00,,---,0.00,VWS V14.01,2013-09-14 07:33:00,
2013-09-14 03:34:00,69.6,49.6,29.85,North,3,2.7,2.7,49,0.00,,---,0.00,VWS V14.01,2013-09-14 07:34:00,
2013-09-14 03:35:00,69.8,49.2,29.85,North,3,2.7,2.7,48,0.00,,---,0.00,VWS V14.01,2013-09-14 07:35:00,
2013-09-14 03:36:00,69.8,49.2,29.85,NNW,331,2.7,2.7,48,0.00,,---,0.00,VWS V14.01,2013-09-14 07:36:00,
2013-09-14 03:37:00,69.8,49.2,29.85,NW,313,4.0,4.0,48,0.00,,---,0.00,VWS V14.01,2013-09-14 07:37:00,
2013-09-14 03:38:00,69.8,49.2,29.85,NW,313,4.0,4.0,48,0.00,,---,0.00,VWS V14.01,2013-09-14 07:38:00,
2013-09-14 03:39:00,69.8,49.2,29.85,NW,313,4.0,4.0,48,0.00,,---,0.00,VWS V14.01,2013-09-14 07:39:00,
2013-09-14 03:40:00,69.8,49.2,29.85,NW,313,4.0,4.0,48,0.00,,---,0.00,VWS V14.01,2013-09-14 07:40:00,
2013-09-14 03:41:00,69.6,49.1,29.85,North,0,4.0,4.0,48,0.00,,---,0.00,VWS V14.01,2013-09-14 07:41:00,
2013-09-14 03:42:00,69.6,49.1,29.85,North,0,4.0,4.0,48,0.00,,---,0.00,VWS V14.01,2013-09-14 07:42:00,
2013-09-14 03:43:00,69.6,49.1,29.85,North,8,2.7,2.7,48,0.00,,---,0.00,VWS V14.01,2013-09-14 07:43:00,
2013-09-14 03:44:00,69.6,49.1,29.85,North,8,2.7,2.7,48,0.00,,---,0.00,VWS V14.01,2013-09-14 07:44:00,
2013-09-14 03:45:00,69.6,49.1,29.85,NNW,343,2.7,2.7,48,0.00,,---,0.00,VWS V14.01,2013-09-14 07:45:00,
2013-09-14 03:46:00,69.6,49.1,29.85,NNE,19,0.0,0.0,48,0.00,,---,0.00,VWS V14.01,2013-09-14 07:46:00,
2013-09-14 03:47:00,69.6,49.1,29.85,NNE,19,0.0,0.0,48,0.00,,---,0.00,VWS V14.01,2013-09-14 07:47:00,
2013-09-14 03:48:00,69.6,49.1,29.85,NNE,19,0.0,0.0,48,0.00,,---,0.00,VWS V14.01,2013-09-14 07:48:00,
2013-09-14 03:49:00,69.6,49.1,29.85,NNE,19,0.0,0.0,48,0.00,,---,0.00,VWS V14.01,2013-09-14 07:49:00,
2013-09-14 03:50:00,69.6,49.1,29.85,NNE,21,0.0,0.0,48,0.00,,---,0.00,VWS V14.01,2013-09-14 07:50:00,
2013-09-14 03:51:00,69.6,49.1,29.85,North,353,3.1,3.1,48,0.00,,---,0.00,VWS V14.01,2013-09-14 07:51:00,
2013-09-14 03:53:00,69.6,49.1,29.85,NNW,348,0.0,0.0,48,0.00,,---,0.00,VWS V14.01,2013-09-14 07:53:00,
2013-09-14 03:55:00,69.6,49.1,29.85,North,4,3.1,3.1,48,0.00,,---,0.00,VWS V14.01,2013-09-14 07:55:00,
2013-09-14 03:56:00,69.6,49.1,29.85,NNE,14,3.1,3.1,48,0.00,,---,0.00,VWS V14.01,2013-09-14 07:56:00,
2013-09-14 03:58:00,69.8,48.7,29.85,North,11,3.1,3.1,47,0.00,,---,0.00,VWS V14.01,2013-09-14 07:58:00,
2013-09-14 04:00:00,69.8,48.7,29.85,NW,306,2.7,3.1,47,0.00,,---,0.00,VWS V14.01,2013-09-14 08:00:00,
2013-09-14 04:01:00,69.8,48.7,29.85,NW,306,2.7,2.7,47,0.00,,---,0.00,VWS V14.01,2013-09-14 08:01:00,
2013-09-14 04:03:00,69.6,49.1,29.85,WNW,302,0.0,0.0,48,0.00,,---,0.00,VWS V14.01,2013-09-14 08:03:00,
2013-09-14 04:05:00,69.6,49.1,29.85,North,353,0.0,0.0,48,0.00,,---,0.00,VWS V14.01,2013-09-14 08:05:00,
2013-09-14 04:06:00,69.6,49.1,29.85,North,353,0.0,0.0,48,0.00,,---,0.00,VWS V14.01,2013-09-14 08:06:00,
2013-09-14 04:07:00,69.6,49.1,29.85,North,353,0.0,0.0,48,0.00,,---,0.00,VWS V14.01,2013-09-14 08:07:00,
2013-09-14 04:08:00,69.4,48.9,29.85,North,0,0.0,0.0,48,0.00,,---,0.00,VWS V14.01,2013-09-14 08:08:00,
2013-09-14 04:10:00,69.4,48.9,29.85,North,0,0.0,0.0,48,0.00,,---,0.00,VWS V14.01,2013-09-14 08:10:00,
2013-09-14 04:11:00,69.4,48.9,29.85,NNE,20,0.0,0.0,48,0.00,,---,0.00,VWS V14.01,2013-09-14 08:11:00,
2013-09-14 04:12:00,69.4,48.9,29.85,NNE,20,0.0,0.0,48,0.00,,---,0.00,VWS V14.01,2013-09-14 08:12:00,
2013-09-14 04:13:00,69.4,48.9,29.85,North,1,2.2,2.2,48,0.00,,---,0.00,VWS V14.01,2013-09-14 08:13:00,
2013-09-14 04:15:00,69.4,48.9,29.85,NNW,340,2.7,2.7,48,0.00,,---,0.00,VWS V14.01,2013-09-14 08:15:00,
2013-09-14 04:16:00,69.4,48.9,29.85,NNW,340,2.7,2.7,48,0.00,,---,0.00,VWS V14.01,2013-09-14 08:16:00,
2013-09-14 04:17:00,69.4,48.9,29.85,NNW,341,3.6,3.6,48,0.00,,---,0.00,VWS V14.01,2013-09-14 08:17:00,
2013-09-14 04:18:00,69.4,48.9,29.85,North,349,3.1,3.1,48,0.00,,---,0.00,VWS V14.01,2013-09-14 08:18:00,
2013-09-14 04:19:00,69.4,48.9,29.85,NNW,341,3.1,3.1,48,0.00,,---,0.00,VWS V14.01,2013-09-14 08:19:00,
2013-09-14 04:20:00,69.3,48.8,29.85,NNW,341,3.1,3.1,48,0.00,,---,0.00,VWS V14.01,2013-09-14 08:20:00,
2013-09-14 04:21:00,69.3,48.8,29.85,NNW,341,3.1,3.1,48,0.00,,---,0.00,VWS V14.01,2013-09-14 08:21:00,
2013-09-14 04:22:00,69.3,48.8,29.85,NNW,341,3.1,3.1,48,0.00,,---,0.00,VWS V14.01,2013-09-14 08:22:00,
2013-09-14 04:23:00,69.3,48.8,29.85,NNW,327,0.0,0.0,48,0.00,,---,0.00,VWS V14.01,2013-09-14 08:23:00,
2013-09-14 04:25:00,69.3,48.8,29.85,NW,326,0.0,0.0,48,0.00,,---,0.00,VWS V14.01,2013-09-14 08:25:00,
2013-09-14 04:26:00,69.3,48.8,29.85,NW,322,0.0,0.0,48,0.00,,---,0.00,VWS V14.01,2013-09-14 08:26:00,
2013-09-14 04:27:00,69.3,48.8,29.85,North,10,0.0,0.0,48,0.00,,---,0.00,VWS V14.01,2013-09-14 08:27:00,
2013-09-14 04:28:00,69.3,48.8,29.85,NNE,15,4.0,4.0,48,0.00,,---,0.00,VWS V14.01,2013-09-14 08:28:00,
2013-09-14 04:30:00,69.1,48.0,29.85,NNE,15,4.0,4.0,47,0.00,,---,0.00,VWS V14.01,2013-09-14 08:30:00,
2013-09-14 04:31:00,69.1,48.0,29.85,NE,39,2.7,2.7,47,0.00,,---,0.00,VWS V14.01,2013-09-14 08:31:00,
2013-09-14 04:32:00,69.1,48.0,29.85,NNE,20,0.0,0.0,47,0.00,,---,0.00,VWS V14.01,2013-09-14 08:32:00,
2013-09-14 04:33:00,69.1,48.0,29.85,NNE,20,0.0,0.0,47,0.00,,---,0.00,VWS V14.01,2013-09-14 08:33:00,
2013-09-14 04:35:00,69.1,48.0,29.85,NW,318,0.0,0.0,47,0.00,,---,0.00,VWS V14.01,2013-09-14 08:35:00,
2013-09-14 04:36:00,69.1,48.0,29.85,WNW,297,0.0,0.0,47,0.00,,---,0.00,VWS V14.01,2013-09-14 08:36:00,
2013-09-14 04:37:00,69.1,48.0,29.85,WNW,297,0.0,0.0,47,0.00,,---,0.00,VWS V14.01,2013-09-14 08:37:00,
2013-09-14 04:38:00,69.1,48.0,29.85,NNW,332,2.2,2.2,47,0.00,,---,0.00,VWS V14.01,2013-09-14 08:38:00,
2013-09-14 04:40:00,69.1,48.0,29.85,NNW,330,0.0,0.0,47,0.00,,---,0.00,VWS V14.01,2013-09-14 08:40:00,
2013-09-14 04:41:00,69.1,48.0,29.85,NNW,334,2.7,2.7,47,0.00,,---,0.00,VWS V14.01,2013-09-14 08:41:00,
2013-09-14 04:42:00,69.1,48.0,29.85,NNW,334,2.7,2.7,47,0.00,,---,0.00,VWS V14.01,2013-09-14 08:42:00,
2013-09-14 04:43:00,69.1,48.0,29.85,NNW,334,2.7,2.7,47,0.00,,---,0.00,VWS V14.01,2013-09-14 08:43:00,
2013-09-14 04:45:00,69.1,48.0,29.85,NNW,334,0.0,0.0,47,0.00,,---,0.00,VWS V14.01,2013-09-14 08:45:00,
2013-09-14 04:46:00,69.1,48.0,29.85,North,0,0.0,0.0,47,0.00,,---,0.00,VWS V14.01,2013-09-14 08:46:00,
2013-09-14 04:47:00,68.4,47.9,29.85,North,0,0.0,0.0,48,0.00,,---,0.00,VWS V14.01,2013-09-14 08:47:00,
2013-09-14 04:48:00,68.4,47.9,29.85,North,0,0.0,0.0,48,0.00,,---,0.00,VWS V14.01,2013-09-14 08:48:00,
2013-09-14 04:50:00,68.2,47.8,29.85,North,0,0.0,0.0,48,0.00,,---,0.00,VWS V14.01,2013-09-14 08:50:00,
2013-09-14 04:51:00,68.2,47.8,29.85,North,0,0.0,0.0,48,0.00,,---,0.00,VWS V14.01,2013-09-14 08:51:00,
2013-09-14 04:53:00,68.2,47.8,29.85,North,0,0.0,0.0,48,0.00,,---,0.00,VWS V14.01,2013-09-14 08:53:00,
2013-09-14 04:55:00,68.2,47.8,29.85,North,0,0.0,0.0,48,0.00,,---,0.00,VWS V14.01,2013-09-14 08:55:00,
2013-09-14 04:56:00,67.8,47.4,29.85,North,0,0.0,0.0,48,0.00,,---,0.00,VWS V14.01,2013-09-14 08:56:00,
2013-09-14 04:57:00,67.8,47.4,29.85,North,0,0.0,0.0,48,0.00,,---,0.00,VWS V14.01,2013-09-14 08:57:00,
2013-09-14 04:58:00,67.8,47.4,29.85,North,0,0.0,0.0,48,0.00,,---,0.00,VWS V14.01,2013-09-14 08:58:00,
2013-09-14 05:00:00,67.8,47.4,29.85,North,353,0.0,0.0,48,0.00,,---,0.00,VWS V14.01,2013-09-14 09:00:00,
2013-09-14 05:01:00,67.8,47.4,29.85,North,353,0.0,0.0,48,0.00,,---,0.00,VWS V14.01,2013-09-14 09:01:00,
2013-09-14 05:02:00,67.8,47.4,29.85,North,353,0.0,0.0,48,0.00,,---,0.00,VWS V14.01,2013-09-14 09:02:00,
2013-09-14 05:03:00,67.8,47.4,29.85,NNW,328,0.0,0.0,48,0.00,,---,0.00,VWS V14.01,2013-09-14 09:03:00,
2013-09-14 05:05:00,67.6,47.8,29.85,NNW,328,0.0,0.0,49,0.00,,---,0.00,VWS V14.01,2013-09-14 09:05:00,
2013-09-14 05:06:00,67.5,47.7,29.85,NNW,329,0.0,0.0,49,0.00,,---,0.00,VWS V14.01,2013-09-14 09:06:00,
2013-09-14 05:07:00,67.5,47.7,29.85,NW,315,3.1,3.1,49,0.00,,---,0.00,VWS V14.01,2013-09-14 09:07:00,
2013-09-14 05:08:00,67.5,47.7,29.85,NW,314,0.0,3.1,49,0.00,,---,0.00,VWS V14.01,2013-09-14 09:08:00,
2013-09-14 05:09:00,67.5,47.7,29.85,NW,314,0.0,3.1,49,0.00,,---,0.00,VWS V14.01,2013-09-14 09:09:00,
2013-09-14 05:10:00,67.5,47.7,29.85,NW,314,0.0,0.0,49,0.00,,---,0.00,VWS V14.01,2013-09-14 09:10:00,
2013-09-14 05:12:00,67.5,47.7,29.85,NW,314,0.0,0.0,49,0.00,,---,0.00,VWS V14.01,2013-09-14 09:12:00,
2013-09-14 05:13:00,67.3,47.5,29.85,NW,314,0.0,0.0,49,0.00,,---,0.00,VWS V14.01,2013-09-14 09:13:00,
2013-09-14 05:14:00,67.3,47.5,29.85,NW,314,0.0,0.0,49,0.00,,---,0.00,VWS V14.01,2013-09-14 09:14:00,
2013-09-14 05:15:00,67.3,47.5,29.85,NW,314,0.0,0.0,49,0.00,,---,0.00,VWS V14.01,2013-09-14 09:15:00,
2013-09-14 05:17:00,67.3,47.5,29.85,NW,314,0.0,0.0,49,0.00,,---,0.00,VWS V14.01,2013-09-14 09:17:00,
2013-09-14 05:18:00,67.3,47.5,29.85,NW,314,0.0,0.0,49,0.00,,---,0.00,VWS V14.01,2013-09-14 09:18:00,
2013-09-14 05:19:00,67.3,47.5,29.85,NW,314,0.0,0.0,49,0.00,,---,0.00,VWS V14.01,2013-09-14 09:19:00,
2013-09-14 05:20:00,67.3,47.5,29.85,NNW,341,0.0,0.0,49,0.00,,---,0.00,VWS V14.01,2013-09-14 09:20:00,
2013-09-14 05:22:00,67.3,47.5,29.85,NW,323,3.6,3.6,49,0.00,,---,0.00,VWS V14.01,2013-09-14 09:22:00,
2013-09-14 05:23:00,67.3,47.5,29.85,NW,326,3.6,3.6,49,0.00,,---,0.00,VWS V14.01,2013-09-14 09:23:00,
2013-09-14 05:24:00,67.3,47.5,29.85,NW,326,3.6,3.6,49,0.00,,---,0.00,VWS V14.01,2013-09-14 09:24:00,
2013-09-14 05:25:00,67.3,47.5,29.85,NW,326,3.6,3.6,49,0.00,,---,0.00,VWS V14.01,2013-09-14 09:25:00,
2013-09-14 05:27:00,67.1,47.9,29.85,WNW,301,3.1,3.6,50,0.00,,---,0.00,VWS V14.01,2013-09-14 09:27:00,
2013-09-14 05:29:00,67.1,47.9,29.85,NW,319,2.7,2.7,50,0.00,,---,0.00,VWS V14.01,2013-09-14 09:29:00,
2013-09-14 05:30:00,67.1,47.9,29.85,NNW,331,2.7,2.7,50,0.00,,---,0.00,VWS V14.01,2013-09-14 09:30:00,
2013-09-14 05:32:00,67.1,47.9,29.85,NNW,331,2.7,2.7,50,0.00,,---,0.00,VWS V14.01,2013-09-14 09:32:00,
2013-09-14 05:33:00,67.1,47.9,29.85,NW,324,2.7,3.1,50,0.00,,---,0.00,VWS V14.01,2013-09-14 09:33:00,
2013-09-14 05:34:00,67.1,47.9,29.85,NW,324,2.7,2.7,50,0.00,,---,0.00,VWS V14.01,2013-09-14 09:34:00,
2013-09-14 05:35:00,67.1,48.4,29.85,North,349,2.7,2.7,51,0.00,,---,0.00,VWS V14.01,2013-09-14 09:35:00,
2013-09-14 05:37:00,67.1,48.4,29.88,NW,324,0.0,2.7,51,0.00,,---,0.00,VWS V14.01,2013-09-14 09:37:00,
2013-09-14 05:38:00,67.1,48.4,29.88,NW,324,0.0,0.0,51,0.00,,---,0.00,VWS V14.01,2013-09-14 09:38:00,
2013-09-14 05:39:00,66.9,48.2,29.88,NW,324,0.0,0.0,51,0.00,,---,0.00,VWS V14.01,2013-09-14 09:39:00,
2013-09-14 05:40:00,66.9,48.2,29.88,NW,324,0.0,0.0,51,0.00,,---,0.00,VWS V14.01,2013-09-14 09:40:00,
2013-09-14 05:42:00,66.9,48.2,29.88,NW,326,0.0,2.7,51,0.00,,---,0.00,VWS V14.01,2013-09-14 09:42:00,
2013-09-14 05:43:00,66.9,48.2,29.88,NW,312,2.7,2.7,51,0.00,,---,0.00,VWS V14.01,2013-09-14 09:43:00,
2013-09-14 05:44:00,66.9,48.2,29.88,NW,312,2.7,2.7,51,0.00,,---,0.00,VWS V14.01,2013-09-14 09:44:00,
2013-09-14 05:45:00,66.9,48.2,29.88,NW,309,3.1,3.1,51,0.00,,---,0.00,VWS V14.01,2013-09-14 09:45:00,
2013-09-14 05:47:00,66.9,48.2,29.88,West,266,3.6,3.6,51,0.00,,---,0.00,VWS V14.01,2013-09-14 09:47:00,
2013-09-14 05:48:00,66.9,48.2,29.88,West,266,3.6,3.6,51,0.00,,---,0.00,VWS V14.01,2013-09-14 09:48:00,
2013-09-14 05:49:00,66.9,48.2,29.88,WNW,288,0.0,0.0,51,0.00,,---,0.00,VWS V14.01,2013-09-14 09:49:00,
2013-09-14 05:50:00,66.9,48.2,29.88,WNW,288,0.0,0.0,51,0.00,,---,0.00,VWS V14.01,2013-09-14 09:50:00,
2013-09-14 05:52:00,66.9,48.2,29.88,NW,314,2.7,2.7,51,0.00,,---,0.00,VWS V14.01,2013-09-14 09:52:00,
2013-09-14 05:53:00,66.9,48.2,29.88,NNW,335,0.0,3.1,51,0.00,,---,0.00,VWS V14.01,2013-09-14 09:53:00,
2013-09-14 05:54:00,66.9,48.2,29.88,NNW,335,0.0,0.0,51,0.00,,---,0.00,VWS V14.01,2013-09-14 09:54:00,
2013-09-14 05:55:00,66.9,48.2,29.88,NNW,335,0.0,0.0,51,0.00,,---,0.00,VWS V14.01,2013-09-14 09:55:00,
2013-09-14 05:57:00,66.9,49.2,29.88,West,274,2.7,2.7,53,0.00,,---,0.00,VWS V14.01,2013-09-14 09:57:00,
2013-09-14 05:58:00,66.9,49.2,29.88,West,274,2.7,2.7,53,0.00,,---,0.00,VWS V14.01,2013-09-14 09:58:00,
2013-09-14 05:59:00,66.9,49.2,29.88,NW,319,2.7,2.7,53,0.00,,---,0.00,VWS V14.01,2013-09-14 09:59:00,
2013-09-14 06:00:00,66.9,49.2,29.88,NW,319,2.7,2.7,53,0.00,,---,0.00,VWS V14.01,2013-09-14 10:00:00,
2013-09-14 06:02:00,66.9,49.8,29.88,NW,319,2.7,2.7,54,0.00,,---,0.00,VWS V14.01,2013-09-14 10:02:00,
2013-09-14 06:03:00,66.9,49.8,29.88,NW,325,6.3,7.2,54,0.00,,---,0.00,VWS V14.01,2013-09-14 10:03:00,
2013-09-14 06:04:00,66.9,49.8,29.88,NW,325,6.3,6.3,54,0.00,,---,0.00,VWS V14.01,2013-09-14 10:04:00,
2013-09-14 06:05:00,67.1,50.4,29.88,NW,325,6.3,6.3,55,0.00,,---,0.00,VWS V14.01,2013-09-14 10:05:00,
2013-09-14 06:06:00,67.1,50.4,29.88,NNW,340,3.6,6.3,55,0.00,,---,0.00,VWS V14.01,2013-09-14 10:06:00,
2013-09-14 06:07:00,67.1,50.4,29.88,NNW,340,3.6,3.6,55,0.00,,---,0.00,VWS V14.01,2013-09-14 10:07:00,
2013-09-14 06:09:00,67.1,50.4,29.88,NNW,329,3.1,3.1,55,0.00,,---,0.00,VWS V14.01,2013-09-14 10:09:00,
2013-09-14 06:10:00,67.1,50.4,29.88,NNW,346,2.7,2.7,55,0.00,,---,0.00,VWS V14.01,2013-09-14 10:10:00,
2013-09-14 06:11:00,67.1,50.9,29.88,NNW,346,2.7,2.7,56,0.00,,---,0.00,VWS V14.01,2013-09-14 10:11:00,
2013-09-14 06:12:00,67.1,50.9,29.88,NNW,340,3.1,3.1,56,0.00,,---,0.00,VWS V14.01,2013-09-14 10:12:00,
2013-09-14 06:14:00,67.1,50.9,29.88,WNW,293,2.7,7.6,56,0.00,,---,0.00,VWS V14.01,2013-09-14 10:14:00,
2013-09-14 06:15:00,67.1,50.9,29.88,WNW,293,2.7,7.6,56,0.00,,---,0.00,VWS V14.01,2013-09-14 10:15:00,
2013-09-14 06:16:00,67.1,50.9,29.88,WNW,293,2.7,2.7,56,0.00,,---,0.00,VWS V14.01,2013-09-14 10:16:00,
2013-09-14 06:17:00,67.1,50.9,29.88,North,357,0.0,0.0,56,0.00,,---,0.00,VWS V14.01,2013-09-14 10:17:00,
2013-09-14 06:19:00,67.1,50.9,29.88,NNW,327,2.7,2.7,56,0.00,,---,0.00,VWS V14.01,2013-09-14 10:19:00,
2013-09-14 06:20:00,67.1,50.9,29.88,NNW,327,2.7,2.7,56,0.00,,---,0.00,VWS V14.01,2013-09-14 10:20:00,
2013-09-14 06:21:00,67.1,50.9,29.88,NNW,344,4.0,4.0,56,0.00,,---,0.00,VWS V14.01,2013-09-14 10:21:00,
2013-09-14 06:22:00,66.9,51.7,29.88,NNW,343,2.7,2.7,58,0.00,,---,0.00,VWS V14.01,2013-09-14 10:22:00,
2013-09-14 06:24:00,66.9,51.7,29.88,NNW,343,2.7,2.7,58,0.00,,---,0.00,VWS V14.01,2013-09-14 10:24:00,
2013-09-14 06:25:00,66.9,51.7,29.88,NNW,343,2.7,2.7,58,0.00,,---,0.00,VWS V14.01,2013-09-14 10:25:00,
2013-09-14 06:26:00,66.9,51.7,29.88,NNW,346,4.0,4.0,58,0.00,,---,0.00,VWS V14.01,2013-09-14 10:26:00,
2013-09-14 06:27:00,66.9,51.7,29.88,NNW,346,4.0,4.0,58,0.00,,---,0.00,VWS V14.01,2013-09-14 10:27:00,
2013-09-14 06:29:00,66.9,51.7,29.88,NNW,346,4.0,4.0,58,0.00,,---,0.00,VWS V14.01,2013-09-14 10:29:00,
2013-09-14 06:30:00,66.9,51.7,29.88,NNW,346,4.0,4.0,58,0.00,,---,0.00,VWS V14.01,2013-09-14 10:30:00,
2013-09-14 06:31:00,66.7,52.0,29.88,NNW,346,4.0,4.0,59,0.00,,---,0.00,VWS V14.01,2013-09-14 10:31:00,
2013-09-14 06:32:00,66.7,52.0,29.88,NNW,346,4.0,4.0,59,0.00,,---,0.00,VWS V14.01,2013-09-14 10:32:00,
2013-09-14 06:34:00,66.6,51.8,29.88,NNW,346,4.0,4.0,59,0.00,,---,0.00,VWS V14.01,2013-09-14 10:34:00,
2013-09-14 06:35:00,66.6,51.8,29.88,NNW,335,4.0,4.0,59,0.00,,---,0.00,VWS V14.01,2013-09-14 10:35:00,
2013-09-14 06:36:00,66.6,51.8,29.88,NNW,335,4.0,4.0,59,0.00,,---,0.00,VWS V14.01,2013-09-14 10:36:00,
2013-09-14 06:37:00,66.6,51.8,29.91,NNW,335,3.1,4.0,59,0.00,,---,0.00,VWS V14.01,2013-09-14 10:37:00,
2013-09-14 06:39:00,66.6,51.8,29.91,NNW,339,0.0,0.0,59,0.00,,---,0.00,VWS V14.01,2013-09-14 10:39:00,
2013-09-14 06:40:00,66.6,51.8,29.91,NNW,339,0.0,0.0,59,0.00,,---,0.00,VWS V14.01,2013-09-14 10:40:00,
2013-09-14 06:41:00,66.6,51.8,29.91,NNW,339,0.0,0.0,59,0.00,,---,0.00,VWS V14.01,2013-09-14 10:41:00,
2013-09-14 06:42:00,66.6,51.8,29.91,NNW,339,0.0,0.0,59,0.00,,---,0.00,VWS V14.01,2013-09-14 10:42:00,
2013-09-14 06:44:00,66.6,51.8,29.91,NNW,339,0.0,0.0,59,0.00,,---,0.00,VWS V14.01,2013-09-14 10:44:00,
2013-09-14 06:45:00,66.6,51.8,29.91,NNW,339,0.0,0.0,59,0.00,,---,0.00,VWS V14.01,2013-09-14 10:45:00,
2013-09-14 06:46:00,66.6,51.8,29.91,NNW,339,0.0,0.0,59,0.00,,---,0.00,VWS V14.01,2013-09-14 10:46:00,
2013-09-14 06:47:00,66.4,52.1,29.91,NNW,341,3.1,4.0,60,0.00,,---,0.00,VWS V14.01,2013-09-14 10:47:00,
2013-09-14 06:49:00,66.2,51.5,29.91,NNE,13,2.7,3.1,59,0.00,,---,0.00,VWS V14.01,2013-09-14 10:49:00,
2013-09-14 06:50:00,66.2,51.5,29.91,NNE,13,2.7,3.1,59,0.00,,---,0.00,VWS V14.01,2013-09-14 10:50:00,
2013-09-14 06:51:00,66.2,51.5,29.91,NNE,13,2.7,2.7,59,0.00,,---,0.00,VWS V14.01,2013-09-14 10:51:00,
2013-09-14 06:52:00,66.2,51.5,29.91,North,357,7.6,7.6,59,0.00,,---,0.00,VWS V14.01,2013-09-14 10:52:00,
2013-09-14 06:54:00,66.2,51.5,29.91,North,357,7.6,7.6,59,0.00,,---,0.00,VWS V14.01,2013-09-14 10:54:00,
2013-09-14 06:55:00,66.2,51.5,29.91,North,357,7.6,7.6,59,0.00,,---,0.00,VWS V14.01,2013-09-14 10:55:00,
2013-09-14 06:56:00,66.2,51.5,29.91,North,357,7.6,7.6,59,0.00,,---,0.00,VWS V14.01,2013-09-14 10:56:00,
2013-09-14 06:57:00,66.2,51.5,29.91,North,357,7.6,7.6,59,0.00,,---,0.00,VWS V14.01,2013-09-14 10:57:00,
2013-09-14 06:59:00,66.2,51.5,29.91,WNW,302,2.7,7.6,59,0.00,,---,0.00,VWS V14.01,2013-09-14 10:59:00,
2013-09-14 07:00:00,66.2,51.0,29.91,NNW,345,4.0,4.0,58,0.00,,---,0.00,VWS V14.01,2013-09-14 11:00:00,
2013-09-14 07:01:00,66.2,51.0,29.91,WNW,288,3.1,4.0,58,0.00,,---,0.00,VWS V14.01,2013-09-14 11:01:00,
2013-09-14 07:02:00,66.2,51.0,29.91,WNW,288,3.1,3.1,58,0.00,,---,0.00,VWS V14.01,2013-09-14 11:02:00,
2013-09-14 07:04:00,66.2,51.0,29.91,NNE,16,6.3,6.3,58,0.00,,---,0.00,VWS V14.01,2013-09-14 11:04:00,
2013-09-14 07:05:00,66.2,51.0,29.91,NNE,16,6.3,6.3,58,0.00,,---,0.00,VWS V14.01,2013-09-14 11:05:00,
2013-09-14 07:06:00,66.2,51.0,29.91,NNE,16,6.3,6.3,58,0.00,,---,0.00,VWS V14.01,2013-09-14 11:06:00,
2013-09-14 07:07:00,66.2,51.0,29.91,NNE,16,6.3,6.3,58,0.00,,---,0.00,VWS V14.01,2013-09-14 11:07:00,
2013-09-14 07:09:00,66.2,51.0,29.91,NNW,338,3.6,3.6,58,0.00,,---,0.00,VWS V14.01,2013-09-14 11:09:00,
2013-09-14 07:11:00,66.2,51.0,29.91,NNW,338,3.6,3.6,58,0.00,,---,0.00,VWS V14.01,2013-09-14 11:11:00,
2013-09-14 07:12:00,66.0,49.9,29.91,NNW,329,4.0,4.0,56,0.00,,---,0.00,VWS V14.01,2013-09-14 11:12:00,
2013-09-14 07:14:00,66.0,49.9,29.91,NNW,329,4.0,4.0,56,0.00,,---,0.00,VWS V14.01,2013-09-14 11:14:00,
2013-09-14 07:16:00,65.8,49.2,29.91,NNW,329,4.0,4.0,55,0.00,,---,0.00,VWS V14.01,2013-09-14 11:16:00,
2013-09-14 07:17:00,65.8,49.2,29.91,NNW,329,4.0,4.0,55,0.00,,---,0.00,VWS V14.01,2013-09-14 11:17:00,
2013-09-14 07:19:00,65.8,49.2,29.91,North,353,6.3,6.3,55,0.00,,---,0.00,VWS V14.01,2013-09-14 11:19:00,
2013-09-14 07:21:00,65.8,49.2,29.91,NNW,342,6.3,6.3,55,0.00,,---,0.00,VWS V14.01,2013-09-14 11:21:00,
2013-09-14 07:22:00,65.8,49.2,29.91,NNW,333,6.3,6.3,55,0.00,,---,0.00,VWS V14.01,2013-09-14 11:22:00,
2013-09-14 07:23:00,65.8,49.2,29.91,NNW,333,6.3,6.3,55,0.00,,---,0.00,VWS V14.01,2013-09-14 11:23:00,
2013-09-14 07:24:00,65.8,49.2,29.91,NNW,333,6.3,6.3,55,0.00,,---,0.00,VWS V14.01,2013-09-14 11:24:00,
2013-09-14 07:26:00,65.8,49.2,29.91,NNW,333,6.3,6.3,55,0.00,,---,0.00,VWS V14.01,2013-09-14 11:26:00,
2013-09-14 07:27:00,65.8,49.2,29.91,WSW,253,5.8,6.3,55,0.00,,---,0.00,VWS V14.01,2013-09-14 11:27:00,
2013-09-14 07:28:00,65.8,49.2,29.91,WSW,253,5.8,6.3,55,0.00,,---,0.00,VWS V14.01,2013-09-14 11:28:00,
2013-09-14 07:29:00,65.8,49.2,29.91,NNW,342,8.1,8.1,55,0.00,,---,0.00,VWS V14.01,2013-09-14 11:29:00,
2013-09-14 07:31:00,65.8,49.2,29.91,NW,314,7.6,8.1,55,0.00,,---,0.00,VWS V14.01,2013-09-14 11:31:00,
2013-09-14 07:32:00,65.8,49.2,29.91,NW,324,4.0,4.0,55,0.00,,---,0.00,VWS V14.01,2013-09-14 11:32:00,
2013-09-14 07:33:00,65.8,49.2,29.91,NW,324,4.0,4.0,55,0.00,,---,0.00,VWS V14.01,2013-09-14 11:33:00,
2013-09-14 07:34:00,65.8,49.2,29.91,NW,324,4.0,4.0,55,0.00,,---,0.00,VWS V14.01,2013-09-14 11:34:00,
2013-09-14 07:36:00,65.8,49.2,29.91,NW,324,4.0,4.0,55,0.00,,---,0.00,VWS V14.01,2013-09-14 11:36:00,
2013-09-14 07:37:00,65.8,49.2,29.91,NW,324,4.0,4.0,55,0.00,,---,0.00,VWS V14.01,2013-09-14 11:37:00,
2013-09-14 07:38:00,65.8,49.2,29.91,NW,311,5.8,5.8,55,0.00,,---,0.00,VWS V14.01,2013-09-14 11:38:00,
2013-09-14 07:39:00,66.0,49.4,29.91,NW,311,5.8,5.8,55,0.00,,---,0.00,VWS V14.01,2013-09-14 11:39:00,
2013-09-14 07:42:00,66.2,49.1,29.91,NW,311,5.8,5.8,54,0.00,,---,0.00,VWS V14.01,2013-09-14 11:42:00,
2013-09-14 07:43:00,66.2,49.1,29.91,NNE,25,4.0,4.0,54,0.00,,---,0.00,VWS V14.01,2013-09-14 11:43:00,
2013-09-14 07:44:00,66.2,49.1,29.91,NNE,25,4.0,4.0,54,0.00,,---,0.00,VWS V14.01,2013-09-14 11:44:00,
2013-09-14 07:47:00,66.2,49.1,29.91,NW,312,5.8,5.8,54,0.00,,---,0.00,VWS V14.01,2013-09-14 11:47:00,
2013-09-14 07:48:00,66.2,49.1,29.91,NW,312,5.8,5.8,54,0.00,,---,0.00,VWS V14.01,2013-09-14 11:48:00,
2013-09-14 07:49:00,66.6,48.4,29.91,NW,312,5.8,5.8,52,0.00,,---,0.00,VWS V14.01,2013-09-14 11:49:00,
2013-09-14 07:52:00,66.7,47.0,29.91,NW,312,5.8,5.8,49,0.00,,---,0.00,VWS V14.01,2013-09-14 11:52:00,
2013-09-14 07:53:00,66.7,47.0,29.91,NNW,339,2.7,5.8,49,0.00,,---,0.00,VWS V14.01,2013-09-14 11:53:00,
2013-09-14 07:54:00,66.7,47.0,29.91,North,353,3.1,3.1,49,0.00,,---,0.00,VWS V14.01,2013-09-14 11:54:00,
2013-09-14 07:57:00,66.9,46.6,29.91,NW,326,10.1,10.1,48,0.00,,---,0.00,VWS V14.01,2013-09-14 11:57:00,
2013-09-14 07:58:00,66.9,46.0,29.91,NW,326,10.1,10.1,47,0.00,,---,0.00,VWS V14.01,2013-09-14 11:58:00,
2013-09-14 07:59:00,66.9,46.0,29.91,NNW,340,5.8,5.8,47,0.00,,---,0.00,VWS V14.01,2013-09-14 11:59:00,
2013-09-14 08:02:00,66.9,46.0,29.91,NNW,340,5.8,5.8,47,0.00,,---,0.00,VWS V14.01,2013-09-14 12:02:00,
2013-09-14 08:03:00,66.9,46.0,29.91,NNW,340,5.8,5.8,47,0.00,,---,0.00,VWS V14.01,2013-09-14 12:03:00,
2013-09-14 08:04:00,66.9,46.0,29.91,NNW,345,10.5,10.5,47,0.00,,---,0.00,VWS V14.01,2013-09-14 12:04:00,
2013-09-14 08:07:00,66.9,44.9,29.94,NNW,345,10.5,10.5,45,0.00,,---,0.00,VWS V14.01,2013-09-14 12:07:00,
2013-09-14 08:08:00,66.9,44.9,29.94,NNW,345,10.5,10.5,45,0.00,,---,0.00,VWS V14.01,2013-09-14 12:08:00,
2013-09-14 08:10:00,66.9,44.9,29.94,NW,324,8.1,8.1,45,0.00,,---,0.00,VWS V14.01,2013-09-14 12:10:00,
2013-09-14 08:12:00,66.9,44.9,29.94,NNW,344,7.6,8.7,45,0.00,,---,0.00,VWS V14.01,2013-09-14 12:12:00,
2013-09-14 08:13:00,66.9,44.9,29.94,NNW,344,7.6,8.7,45,0.00,,---,0.00,VWS V14.01,2013-09-14 12:13:00,
2013-09-14 08:14:00,66.9,44.9,29.94,NNW,344,7.6,7.6,45,0.00,,---,0.00,VWS V14.01,2013-09-14 12:14:00,
2013-09-14 08:17:00,66.7,44.2,29.94,WNW,283,4.5,4.5,44,0.00,,---,0.00,VWS V14.01,2013-09-14 12:17:00,
2013-09-14 08:18:00,66.9,44.3,29.94,WNW,283,4.5,4.5,44,0.00,,---,0.00,VWS V14.01,2013-09-14 12:18:00,
2013-09-14 08:19:00,66.9,44.3,29.94,WNW,283,4.5,4.5,44,0.00,,---,0.00,VWS V14.01,2013-09-14 12:19:00,
2013-09-14 08:23:00,66.9,43.7,29.94,NNW,332,11.0,11.0,43,0.00,,---,0.00,VWS V14.01,2013-09-14 12:23:00,
2013-09-14 08:24:00,66.9,43.7,29.94,NNW,332,11.0,11.0,43,0.00,,---,0.00,VWS V14.01,2013-09-14 12:24:00,
2013-09-14 08:28:00,67.3,44.0,29.94,North,353,8.3,10.1,43,0.00,,---,0.00,VWS V14.01,2013-09-14 12:28:00,
2013-09-14 08:29:00,67.3,43.4,29.94,North,11,5.4,5.4,42,0.00,,---,0.00,VWS V14.01,2013-09-14 12:29:00,
2013-09-14 08:30:00,67.3,43.4,29.94,North,0,8.7,8.7,42,0.00,,---,0.00,VWS V14.01,2013-09-14 12:30:00,
2013-09-14 08:33:00,67.5,43.6,29.94,NNE,26,10.1,10.1,42,0.00,,---,0.00,VWS V14.01,2013-09-14 12:33:00,
2013-09-14 08:34:00,67.6,43.8,29.94,NNE,26,10.1,10.1,42,0.00,,---,0.00,VWS V14.01,2013-09-14 12:34:00,
2013-09-14 08:35:00,67.6,43.8,29.94,NNE,26,10.1,10.1,42,0.00,,---,0.00,VWS V14.01,2013-09-14 12:35:00,
2013-09-14 08:38:00,67.6,43.8,29.94,North,11,10.5,10.5,42,0.00,,---,0.00,VWS V14.01,2013-09-14 12:38:00,
2013-09-14 08:39:00,67.8,42.6,29.94,WNW,295,6.3,6.3,40,0.00,,---,0.00,VWS V14.01,2013-09-14 12:39:00,
2013-09-14 08:40:00,67.8,42.6,29.94,WNW,295,6.3,6.3,40,0.00,,---,0.00,VWS V14.01,2013-09-14 12:40:00,
2013-09-14 08:43:00,68.0,42.1,29.94,WNW,295,6.3,6.3,39,0.00,,---,0.00,VWS V14.01,2013-09-14 12:43:00,
2013-09-14 08:45:00,68.0,42.1,29.94,WNW,295,6.3,6.3,39,0.00,,---,0.00,VWS V14.01,2013-09-14 12:45:00,
2013-09-14 08:48:00,68.0,42.1,29.94,NNW,330,6.3,6.3,39,0.00,,---,0.00,VWS V14.01,2013-09-14 12:48:00,
2013-09-14 08:50:00,67.8,42.0,29.94,NNW,330,6.3,6.3,39,0.00,,---,0.00,VWS V14.01,2013-09-14 12:50:00,
2013-09-14 08:53:00,67.8,42.0,29.94,WNW,292,8.1,8.1,39,0.00,,---,0.00,VWS V14.01,2013-09-14 12:53:00,
2013-09-14 08:55:00,67.8,42.0,29.94,WNW,292,8.1,8.1,39,0.00,,---,0.00,VWS V14.01,2013-09-14 12:55:00,
2013-09-14 08:56:00,67.5,41.7,29.94,NW,323,10.1,10.1,39,0.00,,---,0.00,VWS V14.01,2013-09-14 12:56:00,
2013-09-14 08:58:00,67.5,42.3,29.94,North,357,8.7,8.7,40,0.00,,---,0.00,VWS V14.01,2013-09-14 12:58:00,
2013-09-14 09:00:00,67.5,42.3,29.94,North,357,8.7,8.7,40,0.00,,---,0.00,VWS V14.01,2013-09-14 13:00:00,
2013-09-14 09:01:00,67.5,42.3,29.94,NNW,332,8.7,8.7,40,0.00,,---,0.00,VWS V14.01,2013-09-14 13:01:00,
2013-09-14 09:03:00,67.5,42.3,29.94,NW,318,8.1,8.1,40,0.00,,---,0.00,VWS V14.01,2013-09-14 13:03:00,
2013-09-14 09:05:00,67.5,42.3,29.94,NW,318,8.1,8.1,40,0.00,,---,0.00,VWS V14.01,2013-09-14 13:05:00,
2013-09-14 09:06:00,67.5,42.3,29.94,NNW,342,5.4,8.1,40,0.00,,---,0.00,VWS V14.01,2013-09-14 13:06:00,
2013-09-14 09:08:00,67.8,42.6,29.94,NNW,342,5.4,5.4,40,0.00,,---,0.00,VWS V14.01,2013-09-14 13:08:00,
2013-09-14 09:10:00,68.0,42.1,29.94,NNW,342,5.4,5.4,39,0.00,,---,0.00,VWS V14.01,2013-09-14 13:10:00,
2013-09-14 09:11:00,68.0,42.1,29.94,NNW,346,3.6,3.6,39,0.00,,---,0.00,VWS V14.01,2013-09-14 13:11:00,
2013-09-14 09:13:00,68.0,42.1,29.94,North,353,5.4,5.4,39,0.00,,---,0.00,VWS V14.01,2013-09-14 13:13:00,
2013-09-14 09:15:00,68.4,41.8,29.94,NW,324,5.8,5.8,38,0.00,,---,0.00,VWS V14.01,2013-09-14 13:15:00,
2013-09-14 09:16:00,68.4,42.5,29.94,NW,324,5.8,5.8,39,0.00,,---,0.00,VWS V14.01,2013-09-14 13:16:00,
2013-09-14 09:18:00,68.4,42.5,29.94,NNE,18,8.3,8.3,39,0.00,,---,0.00,VWS V14.01,2013-09-14 13:18:00,
2013-09-14 09:20:00,68.4,42.5,29.94,North,5,5.4,5.4,39,0.00,,---,0.00,VWS V14.01,2013-09-14 13:20:00,
2013-09-14 09:21:00,68.7,42.1,29.94,WNW,303,4.0,5.4,38,0.00,,---,0.00,VWS V14.01,2013-09-14 13:21:00,
2013-09-14 09:23:00,68.7,42.1,29.94,North,0,4.0,4.0,38,0.00,,---,0.00,VWS V14.01,2013-09-14 13:23:00,
2013-09-14 09:25:00,68.9,42.3,29.94,West,265,3.1,3.1,38,0.00,,---,0.00,VWS V14.01,2013-09-14 13:25:00,
2013-09-14 09:26:00,68.9,42.3,29.94,NNW,337,5.4,5.4,38,0.00,,---,0.00,VWS V14.01,2013-09-14 13:26:00,
2013-09-14 09:28:00,68.9,43.0,29.94,WSW,258,5.8,5.8,39,0.00,,---,0.00,VWS V14.01,2013-09-14 13:28:00,
2013-09-14 09:30:00,68.9,43.0,29.94,WSW,258,5.8,5.8,39,0.00,,---,0.00,VWS V14.01,2013-09-14 13:30:00,
2013-09-14 09:31:00,68.7,42.1,29.94,WSW,258,5.8,5.8,38,0.00,,---,0.00,VWS V14.01,2013-09-14 13:31:00,
2013-09-14 09:32:00,68.7,42.1,29.94,North,1,8.1,8.1,38,0.00,,---,0.00,VWS V14.01,2013-09-14 13:32:00,
2013-09-14 09:33:00,68.7,42.1,29.94,North,1,8.1,8.1,38,0.00,,---,0.00,VWS V14.01,2013-09-14 13:33:00,
2013-09-14 09:35:00,68.5,42.0,29.94,West,276,6.3,6.3,38,0.00,,---,0.00,VWS V14.01,2013-09-14 13:35:00,
2013-09-14 09:36:00,68.5,42.0,29.97,West,276,6.3,6.3,38,0.00,,---,0.00,VWS V14.01,2013-09-14 13:36:00,
2013-09-14 09:37:00,68.5,42.0,29.97,NNW,336,8.3,8.3,38,0.00,,---,0.00,VWS V14.01,2013-09-14 13:37:00,
2013-09-14 09:38:00,68.5,42.0,29.97,NNW,335,10.5,10.5,38,0.00,,---,0.00,VWS V14.01,2013-09-14 13:38:00,
2013-09-14 09:39:00,68.5,42.0,29.97,North,10,5.8,10.5,38,0.00,,---,0.00,VWS V14.01,2013-09-14 13:39:00,
2013-09-14 09:40:00,68.7,42.8,29.97,North,10,5.8,5.8,39,0.00,,---,0.00,VWS V14.01,2013-09-14 13:40:00,
2013-09-14 09:41:00,68.7,42.8,29.97,North,357,3.6,3.6,39,0.00,,---,0.00,VWS V14.01,2013-09-14 13:41:00,
2013-09-14 09:42:00,68.7,42.8,29.97,North,357,3.6,3.6,39,0.00,,---,0.00,VWS V14.01,2013-09-14 13:42:00,
2013-09-14 09:43:00,68.7,42.8,29.97,North,357,3.6,3.6,39,0.00,,---,0.00,VWS V14.01,2013-09-14 13:43:00,
2013-09-14 09:44:00,68.7,42.8,29.97,NNW,330,6.3,6.3,39,0.00,,---,0.00,VWS V14.01,2013-09-14 13:44:00,
2013-09-14 09:45:00,69.1,43.1,29.97,North,8,8.3,8.3,39,0.00,,---,0.00,VWS V14.01,2013-09-14 13:45:00,
2013-09-14 09:46:00,69.1,43.1,29.97,North,8,8.3,8.3,39,0.00,,---,0.00,VWS V14.01,2013-09-14 13:46:00,
2013-09-14 09:47:00,69.1,43.1,29.97,North,8,8.3,8.3,39,0.00,,---,0.00,VWS V14.01,2013-09-14 13:47:00,
2013-09-14 09:48:00,69.1,43.1,29.97,NNW,339,8.3,8.3,39,0.00,,---,0.00,VWS V14.01,2013-09-14 13:48:00,
2013-09-14 09:49:00,69.4,42.8,29.97,NNW,339,8.3,8.3,38,0.00,,---,0.00,VWS V14.01,2013-09-14 13:49:00,
2013-09-14 09:50:00,69.4,42.8,29.97,NNW,339,8.3,8.3,38,0.00,,---,0.00,VWS V14.01,2013-09-14 13:50:00,
2013-09-14 09:51:00,69.4,42.8,29.97,NNW,339,8.3,8.3,38,0.00,,---,0.00,VWS V14.01,2013-09-14 13:51:00,
2013-09-14 09:52:00,69.4,42.1,29.97,NNW,339,8.3,8.3,37,0.00,,---,0.00,VWS V14.01,2013-09-14 13:52:00,
2013-09-14 09:53:00,69.6,42.9,29.97,NNW,342,6.3,8.3,38,0.00,,---,0.00,VWS V14.01,2013-09-14 13:53:00,
2013-09-14 09:54:00,69.6,42.9,29.97,NNW,342,3.6,3.6,38,0.00,,---,0.00,VWS V14.01,2013-09-14 13:54:00,
2013-09-14 09:55:00,69.8,43.1,29.97,NNW,342,3.6,3.6,38,0.00,,---,0.00,VWS V14.01,2013-09-14 13:55:00,
2013-09-14 09:56:00,70.0,43.2,29.97,NNW,342,3.6,3.6,38,0.00,,---,0.00,VWS V14.01,2013-09-14 13:56:00,
2013-09-14 09:57:00,70.0,43.2,29.97,NNW,342,3.6,3.6,38,0.00,,---,0.00,VWS V14.01,2013-09-14 13:57:00,
2013-09-14 09:58:00,70.0,43.2,29.97,NNW,342,3.6,3.6,38,0.00,,---,0.00,VWS V14.01,2013-09-14 13:58:00,
2013-09-14 09:59:00,70.0,43.2,29.97,NNE,16,4.9,4.9,38,0.00,,---,0.00,VWS V14.01,2013-09-14 13:59:00,
2013-09-14 10:00:00,70.3,42.9,29.97,NNE,16,4.9,4.9,37,0.00,,---,0.00,VWS V14.01,2013-09-14 14:00:00,
2013-09-14 10:01:00,70.5,43.7,29.97,NNE,16,4.9,4.9,38,0.00,,---,0.00,VWS V14.01,2013-09-14 14:01:00,
2013-09-14 10:02:00,70.5,43.7,29.97,North,8,11.4,11.4,38,0.00,,---,0.00,VWS V14.01,2013-09-14 14:02:00,
2013-09-14 10:03:00,70.5,43.7,29.97,NNW,346,6.3,6.3,38,0.00,,---,0.00,VWS V14.01,2013-09-14 14:03:00,
2013-09-14 10:04:00,70.9,43.3,29.97,WSW,255,2.7,6.3,37,0.00,,---,0.00,VWS V14.01,2013-09-14 14:04:00,
2013-09-14 10:06:00,71.1,42.8,29.97,WSW,255,2.7,2.7,36,0.00,,---,0.00,VWS V14.01,2013-09-14 14:06:00,
2013-09-14 10:07:00,71.1,42.8,29.97,NW,318,8.3,8.3,36,0.00,,---,0.00,VWS V14.01,2013-09-14 14:07:00,
2013-09-14 10:08:00,71.1,42.8,29.97,NW,317,7.6,7.6,36,0.00,,---,0.00,VWS V14.01,2013-09-14 14:08:00,
2013-09-14 10:09:00,71.1,42.8,29.97,NW,317,7.6,7.6,36,0.00,,---,0.00,VWS V14.01,2013-09-14 14:09:00,
2013-09-14 10:11:00,71.1,42.8,29.97,NW,317,7.6,7.6,36,0.00,,---,0.00,VWS V14.01,2013-09-14 14:11:00,
2013-09-14 10:12:00,71.4,43.1,29.97,NW,317,7.6,7.6,36,0.00,,---,0.00,VWS V14.01,2013-09-14 14:12:00,
2013-09-14 10:13:00,71.4,43.1,29.97,NW,317,7.6,7.6,36,0.00,,---,0.00,VWS V14.01,2013-09-14 14:13:00,
2013-09-14 10:14:00,71.4,43.1,29.97,NW,317,7.6,7.6,36,0.00,,---,0.00,VWS V14.01,2013-09-14 14:14:00,
2013-09-14 10:16:00,71.1,42.8,29.97,NNE,33,10.1,10.1,36,0.00,,---,0.00,VWS V14.01,2013-09-14 14:16:00,
2013-09-14 10:17:00,71.1,42.8,29.97,NNE,33,10.1,10.1,36,0.00,,---,0.00,VWS V14.01,2013-09-14 14:17:00,
2013-09-14 10:18:00,71.1,42.8,29.97,NNW,345,12.3,12.3,36,0.00,,---,0.00,VWS V14.01,2013-09-14 14:18:00,
2013-09-14 10:19:00,71.1,42.8,29.97,NNW,345,12.3,12.3,36,0.00,,---,0.00,VWS V14.01,2013-09-14 14:19:00,
2013-09-14 10:21:00,71.1,42.8,29.97,West,278,8.1,8.1,36,0.00,,---,0.00,VWS V14.01,2013-09-14 14:21:00,
2013-09-14 10:22:00,71.1,42.8,29.97,ENE,78,10.1,10.1,36,0.00,,---,0.00,VWS V14.01,2013-09-14 14:22:00,
2013-09-14 10:23:00,71.1,42.8,29.97,ENE,78,10.1,10.1,36,0.00,,---,0.00,VWS V14.01,2013-09-14 14:23:00,
2013-09-14 10:24:00,71.2,42.9,29.97,NNE,14,4.9,4.9,36,0.00,,---,0.00,VWS V14.01,2013-09-14 14:24:00,
2013-09-14 10:26:00,71.2,43.7,29.97,NNE,16,4.0,4.0,37,0.00,,---,0.00,VWS V14.01,2013-09-14 14:26:00,
2013-09-14 10:27:00,71.2,43.7,29.97,NNW,328,4.9,4.9,37,0.00,,---,0.00,VWS V14.01,2013-09-14 14:27:00,
2013-09-14 10:28:00,71.8,43.4,29.97,NNW,328,4.9,4.9,36,0.00,,---,0.00,VWS V14.01,2013-09-14 14:28:00,
2013-09-14 10:29:00,71.8,43.4,29.97,NW,321,8.3,8.3,36,0.00,,---,0.00,VWS V14.01,2013-09-14 14:29:00,
2013-09-14 10:30:00,72.1,43.7,29.97,NNW,338,8.3,8.3,36,0.00,,---,0.00,VWS V14.01,2013-09-14 14:30:00,
2013-09-14 10:31:00,72.1,43.7,29.97,NNE,27,7.6,7.6,36,0.00,,---,0.00,VWS V14.01,2013-09-14 14:31:00,
2013-09-14 10:32:00,72.3,43.9,29.97,NNE,27,7.6,7.6,36,0.00,,---,0.00,VWS V14.01,2013-09-14 14:32:00,
2013-09-14 10:33:00,72.3,43.9,29.97,NNW,345,6.3,7.6,36,0.00,,---,0.00,VWS V14.01,2013-09-14 14:33:00,
2013-09-14 10:34:00,72.3,43.9,29.97,NNW,345,5.8,6.3,36,0.00,,---,0.00,VWS V14.01,2013-09-14 14:34:00,
2013-09-14 10:35:00,72.3,43.9,29.97,NNW,345,5.8,5.8,36,0.00,,---,0.00,VWS V14.01,2013-09-14 14:35:00,
2013-09-14 10:36:00,72.3,43.9,29.97,NNW,345,5.8,5.8,36,0.00,,---,0.00,VWS V14.01,2013-09-14 14:36:00,
2013-09-14 10:37:00,72.3,43.2,29.97,NNW,328,5.8,5.8,35,0.00,,---,0.00,VWS V14.01,2013-09-14 14:37:00,
2013-09-14 10:38:00,72.3,43.2,29.97,NNW,328,5.8,5.8,35,0.00,,---,0.00,VWS V14.01,2013-09-14 14:38:00,
2013-09-14 10:39:00,72.3,43.2,29.97,North,0,7.6,7.6,35,0.00,,---,0.00,VWS V14.01,2013-09-14 14:39:00,
2013-09-14 10:40:00,72.3,43.2,29.97,North,0,7.6,7.6,35,0.00,,---,0.00,VWS V14.01,2013-09-14 14:40:00,
2013-09-14 10:41:00,72.3,43.2,29.97,North,0,7.6,7.6,35,0.00,,---,0.00,VWS V14.01,2013-09-14 14:41:00,
2013-09-14 10:42:00,72.3,43.2,29.97,North,0,7.6,7.6,35,0.00,,---,0.00,VWS V14.01,2013-09-14 14:42:00,
2013-09-14 10:43:00,72.3,43.2,29.97,North,0,7.6,7.6,35,0.00,,---,0.00,VWS V14.01,2013-09-14 14:43:00,
2013-09-14 10:44:00,72.3,43.2,29.97,North,0,7.6,7.6,35,0.00,,---,0.00,VWS V14.01,2013-09-14 14:44:00,
2013-09-14 10:45:00,72.3,43.2,29.97,North,0,7.6,7.6,35,0.00,,---,0.00,VWS V14.01,2013-09-14 14:45:00,
2013-09-14 10:46:00,72.3,43.2,29.97,North,0,7.6,7.6,35,0.00,,---,0.00,VWS V14.01,2013-09-14 14:46:00,
2013-09-14 10:48:00,72.3,43.2,29.97,North,357,8.3,8.3,35,0.00,,---,0.00,VWS V14.01,2013-09-14 14:48:00,
2013-09-14 10:49:00,72.3,43.2,29.97,North,357,8.3,8.3,35,0.00,,---,0.00,VWS V14.01,2013-09-14 14:49:00,
2013-09-14 10:50:00,72.5,43.3,29.97,North,357,8.3,8.3,35,0.00,,---,0.00,VWS V14.01,2013-09-14 14:50:00,
2013-09-14 10:51:00,72.5,43.3,29.97,NW,323,5.8,5.8,35,0.00,,---,0.00,VWS V14.01,2013-09-14 14:51:00,
2013-09-14 10:53:00,72.7,43.5,29.97,NW,323,5.8,5.8,35,0.00,,---,0.00,VWS V14.01,2013-09-14 14:53:00,
2013-09-14 10:55:00,72.9,43.6,29.97,NNW,339,5.8,5.8,35,0.00,,---,0.00,VWS V14.01,2013-09-14 14:55:00,
2013-09-14 10:56:00,72.9,43.6,29.97,North,357,6.3,6.3,35,0.00,,---,0.00,VWS V14.01,2013-09-14 14:56:00,
2013-09-14 10:58:00,72.9,43.6,29.97,North,357,6.3,6.3,35,0.00,,---,0.00,VWS V14.01,2013-09-14 14:58:00,
2013-09-14 11:00:00,72.9,43.6,29.97,NNW,339,6.3,6.3,35,0.00,,---,0.00,VWS V14.01,2013-09-14 15:00:00,
2013-09-14 11:01:00,72.9,43.6,29.97,NNW,343,7.6,7.6,35,0.00,,---,0.00,VWS V14.01,2013-09-14 15:01:00,
2013-09-14 11:03:00,72.9,43.6,29.97,NNW,343,7.6,7.6,35,0.00,,---,0.00,VWS V14.01,2013-09-14 15:03:00,
2013-09-14 11:05:00,73.0,44.5,29.97,NW,315,8.7,8.7,36,0.00,,---,0.00,VWS V14.01,2013-09-14 15:05:00,
2013-09-14 11:06:00,73.0,44.5,29.97,NW,315,8.7,8.7,36,0.00,,---,0.00,VWS V14.01,2013-09-14 15:06:00,
2013-09-14 11:08:00,73.0,43.8,29.97,NW,315,8.7,8.7,35,0.00,,---,0.00,VWS V14.01,2013-09-14 15:08:00,
2013-09-14 11:10:00,73.0,43.8,29.97,NW,315,8.7,8.7,35,0.00,,---,0.00,VWS V14.01,2013-09-14 15:10:00,
2013-09-14 11:11:00,73.0,43.8,29.97,North,357,5.4,5.8,35,0.00,,---,0.00,VWS V14.01,2013-09-14 15:11:00,
2013-09-14 11:13:00,73.0,43.8,29.97,WSW,247,3.1,3.1,35,0.00,,---,0.00,VWS V14.01,2013-09-14 15:13:00,
2013-09-14 11:15:00,73.6,43.5,29.97,North,0,7.6,7.6,34,0.00,,---,0.00,VWS V14.01,2013-09-14 15:15:00,
2013-09-14 11:17:00,73.8,43.7,29.97,North,0,7.6,7.6,34,0.00,,---,0.00,VWS V14.01,2013-09-14 15:17:00,
2013-09-14 11:18:00,73.8,43.7,29.97,NNW,337,4.9,12.3,34,0.00,,---,0.00,VWS V14.01,2013-09-14 15:18:00,
2013-09-14 11:20:00,73.8,43.7,29.97,North,0,7.6,7.6,34,0.00,,---,0.00,VWS V14.01,2013-09-14 15:20:00,
2013-09-14 11:22:00,73.8,43.7,29.97,North,353,5.8,5.8,34,0.00,,---,0.00,VWS V14.01,2013-09-14 15:22:00,
2013-09-14 11:23:00,73.8,43.7,29.97,North,353,5.8,5.8,34,0.00,,---,0.00,VWS V14.01,2013-09-14 15:23:00,
2013-09-14 11:25:00,73.8,43.7,29.97,WNW,295,7.6,7.6,34,0.00,,---,0.00,VWS V14.01,2013-09-14 15:25:00,
2013-09-14 11:27:00,73.8,43.7,30.00,WNW,295,7.6,7.6,34,0.00,,---,0.00,VWS V14.01,2013-09-14 15:27:00,
2013-09-14 11:28:00,73.9,43.8,30.00,North,3,4.0,4.0,34,0.00,,---,0.00,VWS V14.01,2013-09-14 15:28:00,
2013-09-14 11:29:00,73.9,43.8,30.00,North,3,4.0,4.0,34,0.00,,---,0.00,VWS V14.01,2013-09-14 15:29:00,
2013-09-14 11:30:00,74.1,44.0,30.00,North,3,4.0,4.0,34,0.00,,---,0.00,VWS V14.01,2013-09-14 15:30:00,
2013-09-14 11:31:00,74.1,44.0,30.00,NNE,18,9.6,9.6,34,0.00,,---,0.00,VWS V14.01,2013-09-14 15:31:00,
2013-09-14 11:32:00,74.1,44.0,30.00,NNE,18,9.6,9.6,34,0.00,,---,0.00,VWS V14.01,2013-09-14 15:32:00,
2013-09-14 11:34:00,73.9,43.0,30.00,NNE,25,11.0,11.0,33,0.00,,---,0.00,VWS V14.01,2013-09-14 15:34:00,
2013-09-14 11:35:00,73.9,43.8,30.00,NNE,25,11.0,11.0,34,0.00,,---,0.00,VWS V14.01,2013-09-14 15:35:00,
2013-09-14 11:36:00,73.9,43.8,30.00,North,10,5.4,5.4,34,0.00,,---,0.00,VWS V14.01,2013-09-14 15:36:00,
2013-09-14 11:37:00,73.9,43.8,30.00,North,10,5.4,5.4,34,0.00,,---,0.00,VWS V14.01,2013-09-14 15:37:00,
2013-09-14 11:39:00,73.9,43.8,30.00,North,10,5.4,5.4,34,0.00,,---,0.00,VWS V14.01,2013-09-14 15:39:00,
2013-09-14 11:40:00,74.1,44.0,29.97,NNE,28,10.5,10.5,34,0.00,,---,0.00,VWS V14.01,2013-09-14 15:40:00,
2013-09-14 11:41:00,74.1,44.0,29.97,NNE,28,10.5,10.5,34,0.00,,---,0.00,VWS V14.01,2013-09-14 15:41:00,
2013-09-14 11:42:00,74.1,44.0,29.97,NNE,28,10.5,10.5,34,0.00,,---,0.00,VWS V14.01,2013-09-14 15:42:00,
2013-09-14 11:44:00,74.7,43.7,29.97,NNE,28,10.5,10.5,33,0.00,,---,0.00,VWS V14.01,2013-09-14 15:44:00,
2013-09-14 11:45:00,74.7,43.7,29.97,NNW,345,4.9,4.9,33,0.00,,---,0.00,VWS V14.01,2013-09-14 15:45:00,
2013-09-14 11:46:00,74.7,43.7,29.97,NW,315,15.0,15.0,33,0.00,,---,0.00,VWS V14.01,2013-09-14 15:46:00,
2013-09-14 11:47:00,74.7,43.7,29.97,NNE,29,7.6,7.6,33,0.00,,---,0.00,VWS V14.01,2013-09-14 15:47:00,
2013-09-14 11:49:00,74.7,43.7,29.97,NNW,340,5.8,5.8,33,0.00,,---,0.00,VWS V14.01,2013-09-14 15:49:00,
2013-09-14 11:50:00,75.2,44.2,29.97,NNW,340,5.8,5.8,33,0.00,,---,0.00,VWS V14.01,2013-09-14 15:50:00,
2013-09-14 11:51:00,75.2,44.2,29.97,ENE,58,4.0,5.8,33,0.00,,---,0.00,VWS V14.01,2013-09-14 15:51:00,
2013-09-14 11:52:00,75.4,44.3,29.97,ENE,58,4.0,4.0,33,0.00,,---,0.00,VWS V14.01,2013-09-14 15:52:00,
2013-09-14 11:54:00,75.4,44.3,29.97,NNW,327,3.6,4.0,33,0.00,,---,0.00,VWS V14.01,2013-09-14 15:54:00,
2013-09-14 11:55:00,75.4,44.3,29.97,West,272,3.1,3.1,33,0.00,,---,0.00,VWS V14.01,2013-09-14 15:55:00,
2013-09-14 11:56:00,75.4,44.3,29.97,NNW,338,8.3,8.3,33,0.00,,---,0.00,VWS V14.01,2013-09-14 15:56:00,
2013-09-14 11:57:00,75.4,44.3,29.97,SSW,209,8.3,10.5,33,0.00,,---,0.00,VWS V14.01,2013-09-14 15:57:00,
2013-09-14 11:59:00,75.9,44.0,29.97,North,6,5.8,8.3,32,0.00,,---,0.00,VWS V14.01,2013-09-14 15:59:00,
2013-09-14 12:00:00,75.9,44.0,29.97,NNW,344,11.4,11.4,32,0.00,,---,0.00,VWS V14.01,2013-09-14 16:00:00,
2013-09-14 12:02:00,75.9,44.0,29.97,NNW,336,7.6,11.4,32,0.00,,---,0.00,VWS V14.01,2013-09-14 16:02:00,
2013-09-14 12:04:00,75.9,44.0,29.97,North,357,13.2,13.2,32,0.00,,---,0.00,VWS V14.01,2013-09-14 16:04:00,
2013-09-14 12:05:00,75.7,43.8,29.97,North,357,13.2,13.2,32,0.00,,---,0.00,VWS V14.01,2013-09-14 16:05:00,
2013-09-14 12:07:00,75.7,43.8,29.97,NE,38,6.3,6.3,32,0.00,,---,0.00,VWS V14.01,2013-09-14 16:07:00,
2013-09-14 12:09:00,75.7,43.8,29.97,NE,47,4.9,4.9,32,0.00,,---,0.00,VWS V14.01,2013-09-14 16:09:00,
2013-09-14 12:10:00,75.7,43.8,29.97,NNW,335,3.1,3.1,32,0.00,,---,0.00,VWS V14.01,2013-09-14 16:10:00,
2013-09-14 12:12:00,75.7,43.8,29.97,WSW,251,6.3,8.1,32,0.00,,---,0.00,VWS V14.01,2013-09-14 16:12:00,
2013-09-14 12:14:00,75.7,43.8,29.97,WSW,251,6.3,6.3,32,0.00,,---,0.00,VWS V14.01,2013-09-14 16:14:00,
2013-09-14 12:15:00,75.7,44.6,29.97,WSW,251,6.3,6.3,33,0.00,,---,0.00,VWS V14.01,2013-09-14 16:15:00,
2013-09-14 12:16:00,75.7,44.6,29.97,WSW,251,6.3,6.3,33,0.00,,---,0.00,VWS V14.01,2013-09-14 16:16:00,
2013-09-14 12:17:00,75.7,44.6,29.97,WSW,251,6.3,6.3,33,0.00,,---,0.00,VWS V14.01,2013-09-14 16:17:00,
2013-09-14 12:19:00,75.7,44.6,29.97,North,353,8.1,8.1,33,0.00,,---,0.00,VWS V14.01,2013-09-14 16:19:00,
2013-09-14 12:20:00,75.7,44.6,29.97,NNW,335,8.1,8.1,33,0.00,,---,0.00,VWS V14.01,2013-09-14 16:20:00,
2013-09-14 12:21:00,75.9,44.8,29.97,NNW,335,8.1,8.1,33,0.00,,---,0.00,VWS V14.01,2013-09-14 16:21:00,
2013-09-14 12:22:00,75.9,44.8,29.97,NNW,341,6.3,6.3,33,0.00,,---,0.00,VWS V14.01,2013-09-14 16:22:00,
2013-09-14 12:24:00,75.9,44.8,29.97,NNW,341,6.3,6.3,33,0.00,,---,0.00,VWS V14.01,2013-09-14 16:24:00,
2013-09-14 12:25:00,76.1,44.9,29.97,NNW,341,6.3,6.3,33,0.00,,---,0.00,VWS V14.01,2013-09-14 16:25:00,
2013-09-14 12:26:00,76.1,44.9,29.97,NNW,341,6.3,6.3,33,0.00,,---,0.00,VWS V14.01,2013-09-14 16:26:00,
2013-09-14 12:27:00,76.3,44.3,29.97,North,357,5.4,6.3,32,0.00,,---,0.00,VWS V14.01,2013-09-14 16:27:00,
2013-09-14 12:29:00,76.1,44.1,29.97,NE,52,6.7,6.7,32,0.00,,---,0.00,VWS V14.01,2013-09-14 16:29:00,
2013-09-14 12:31:00,76.1,44.1,29.97,NE,47,6.3,6.3,32,0.00,,---,0.00,VWS V14.01,2013-09-14 16:31:00,
2013-09-14 12:32:00,76.1,44.1,29.97,NE,36,4.9,4.9,32,0.00,,---,0.00,VWS V14.01,2013-09-14 16:32:00,
2013-09-14 12:34:00,76.1,44.1,29.97,NNW,346,14.1,14.1,32,0.00,,---,0.00,VWS V14.01,2013-09-14 16:34:00,
2013-09-14 12:36:00,76.1,44.1,30.00,NNW,346,14.1,14.1,32,0.00,,---,0.00,VWS V14.01,2013-09-14 16:36:00,
2013-09-14 12:37:00,76.1,44.1,30.00,NNW,335,8.1,8.1,32,0.00,,---,0.00,VWS V14.01,2013-09-14 16:37:00,
2013-09-14 12:39:00,76.1,44.1,30.00,NNE,27,6.3,6.3,32,0.00,,---,0.00,VWS V14.01,2013-09-14 16:39:00,
2013-09-14 12:40:00,75.9,44.0,30.00,NNE,27,6.3,6.3,32,0.00,,---,0.00,VWS V14.01,2013-09-14 16:40:00,
2013-09-14 12:41:00,75.9,44.8,30.00,NW,322,4.0,4.0,33,0.00,,---,0.00,VWS V14.01,2013-09-14 16:41:00,
2013-09-14 12:42:00,76.1,44.9,30.00,NW,322,4.0,4.0,33,0.00,,---,0.00,VWS V14.01,2013-09-14 16:42:00,
2013-09-14 12:43:00,76.1,44.9,30.00,NW,322,4.0,4.0,33,0.00,,---,0.00,VWS V14.01,2013-09-14 16:43:00,
2013-09-14 12:44:00,76.1,44.9,30.00,NW,322,4.0,4.0,33,0.00,,---,0.00,VWS V14.01,2013-09-14 16:44:00,
2013-09-14 12:45:00,76.1,44.9,30.00,NW,322,4.0,4.0,33,0.00,,---,0.00,VWS V14.01,2013-09-14 16:45:00,
2013-09-14 12:46:00,76.1,44.9,30.00,NW,322,4.0,4.0,33,0.00,,---,0.00,VWS V14.01,2013-09-14 16:46:00,
2013-09-14 12:47:00,76.1,44.9,30.00,NNW,328,3.1,3.1,33,0.00,,---,0.00,VWS V14.01,2013-09-14 16:47:00,
2013-09-14 12:48:00,76.1,44.9,30.00,NNW,328,3.1,3.1,33,0.00,,---,0.00,VWS V14.01,2013-09-14 16:48:00,
2013-09-14 12:49:00,76.1,44.9,30.00,NNW,344,8.7,8.7,33,0.00,,---,0.00,VWS V14.01,2013-09-14 16:49:00,
2013-09-14 12:50:00,76.1,44.9,30.00,NNW,344,8.7,8.7,33,0.00,,---,0.00,VWS V14.01,2013-09-14 16:50:00,
2013-09-14 12:51:00,76.1,44.9,30.00,NNW,344,8.7,8.7,33,0.00,,---,0.00,VWS V14.01,2013-09-14 16:51:00,
2013-09-14 12:52:00,76.1,44.9,30.00,NNW,344,8.7,8.7,33,0.00,,---,0.00,VWS V14.01,2013-09-14 16:52:00,
2013-09-14 12:53:00,76.1,44.9,30.00,NNW,344,8.7,8.7,33,0.00,,---,0.00,VWS V14.01,2013-09-14 16:53:00,
2013-09-14 12:54:00,76.1,44.9,30.00,NNW,344,8.7,8.7,33,0.00,,---,0.00,VWS V14.01,2013-09-14 16:54:00,
2013-09-14 12:55:00,76.1,44.9,30.00,West,272,2.7,2.7,33,0.00,,---,0.00,VWS V14.01,2013-09-14 16:55:00,
2013-09-14 12:56:00,76.1,44.9,30.00,West,272,2.7,2.7,33,0.00,,---,0.00,VWS V14.01,2013-09-14 16:56:00,
2013-09-14 12:57:00,76.1,44.9,30.00,NW,316,7.6,7.6,33,0.00,,---,0.00,VWS V14.01,2013-09-14 16:57:00,
2013-09-14 12:58:00,77.0,44.9,30.00,ENE,64,5.4,5.4,32,0.00,,---,0.00,VWS V14.01,2013-09-14 16:58:00,
2013-09-14 12:59:00,77.0,44.9,30.00,ENE,64,5.4,5.4,32,0.00,,---,0.00,VWS V14.01,2013-09-14 16:59:00,
2013-09-14 13:01:00,77.0,44.9,30.00,North,357,3.6,5.8,32,0.00,,---,0.00,VWS V14.01,2013-09-14 17:01:00,
2013-09-14 13:02:00,77.2,45.1,30.00,North,357,3.6,3.6,32,0.00,,---,0.00,VWS V14.01,2013-09-14 17:02:00,
2013-09-14 13:03:00,77.2,45.1,30.00,North,357,3.6,3.6,32,0.00,,---,0.00,VWS V14.01,2013-09-14 17:03:00,
2013-09-14 13:04:00,77.4,45.2,30.00,North,357,3.6,3.6,32,0.00,,---,0.00,VWS V14.01,2013-09-14 17:04:00,
2013-09-14 13:06:00,77.4,45.2,30.00,WSW,256,5.4,5.4,32,0.00,,---,0.00,VWS V14.01,2013-09-14 17:06:00,
2013-09-14 13:07:00,77.4,45.2,30.00,WSW,256,5.4,5.4,32,0.00,,---,0.00,VWS V14.01,2013-09-14 17:07:00,
2013-09-14 13:09:00,77.7,45.5,30.00,East,86,7.6,7.6,32,0.00,,---,0.00,VWS V14.01,2013-09-14 17:09:00,
2013-09-14 13:11:00,77.7,45.5,30.00,East,86,7.6,7.6,32,0.00,,---,0.00,VWS V14.01,2013-09-14 17:11:00,
2013-09-14 13:12:00,77.7,45.5,30.00,East,86,7.6,7.6,32,0.00,,---,0.00,VWS V14.01,2013-09-14 17:12:00,
2013-09-14 13:13:00,77.7,45.5,30.00,East,86,7.6,7.6,32,0.00,,---,0.00,VWS V14.01,2013-09-14 17:13:00,
2013-09-14 13:14:00,77.7,45.5,30.00,North,357,3.6,3.6,32,0.00,,---,0.00,VWS V14.01,2013-09-14 17:14:00,
2013-09-14 13:16:00,77.7,45.5,30.00,North,357,3.6,3.6,32,0.00,,---,0.00,VWS V14.01,2013-09-14 17:16:00,
2013-09-14 13:17:00,77.5,45.4,30.00,North,357,3.6,3.6,32,0.00,,---,0.00,VWS V14.01,2013-09-14 17:17:00,
2013-09-14 13:18:00,77.5,45.4,30.00,NNE,13,8.7,8.7,32,0.00,,---,0.00,VWS V14.01,2013-09-14 17:18:00,
2013-09-14 13:19:00,77.4,45.2,30.00,NNE,13,8.7,8.7,32,0.00,,---,0.00,VWS V14.01,2013-09-14 17:19:00,
2013-09-14 13:21:00,77.4,45.2,30.00,NNE,13,8.7,8.7,32,0.00,,---,0.00,VWS V14.01,2013-09-14 17:21:00,
2013-09-14 13:22:00,77.4,45.2,30.00,NNE,13,8.7,8.7,32,0.00,,---,0.00,VWS V14.01,2013-09-14 17:22:00,
2013-09-14 13:23:00,77.4,45.2,30.00,NNE,13,8.7,8.7,32,0.00,,---,0.00,VWS V14.01,2013-09-14 17:23:00,
2013-09-14 13:24:00,77.4,45.2,30.00,NNE,13,8.7,8.7,32,0.00,,---,0.00,VWS V14.01,2013-09-14 17:24:00,
2013-09-14 13:26:00,77.4,45.2,30.00,ENE,70,2.7,2.7,32,0.00,,---,0.00,VWS V14.01,2013-09-14 17:26:00,
2013-09-14 13:27:00,77.4,45.2,30.00,ENE,70,2.7,2.7,32,0.00,,---,0.00,VWS V14.01,2013-09-14 17:27:00,
2013-09-14 13:28:00,77.5,45.4,30.00,ENE,70,2.7,2.7,32,0.00,,---,0.00,VWS V14.01,2013-09-14 17:28:00,
2013-09-14 13:29:00,77.5,45.4,30.00,ENE,70,2.7,2.7,32,0.00,,---,0.00,VWS V14.01,2013-09-14 17:29:00,
2013-09-14 13:31:00,77.5,45.4,30.00,NE,49,3.1,3.1,32,0.00,,---,0.00,VWS V14.01,2013-09-14 17:31:00,
2013-09-14 13:33:00,77.5,45.4,30.00,ESE,108,3.1,3.1,32,0.00,,---,0.00,VWS V14.01,2013-09-14 17:33:00,
2013-09-14 13:34:00,77.5,45.4,30.00,ESE,108,3.1,3.1,32,0.00,,---,0.00,VWS V14.01,2013-09-14 17:34:00,
2013-09-14 13:36:00,77.9,45.7,30.00,NNE,21,8.3,8.3,32,0.00,,---,0.00,VWS V14.01,2013-09-14 17:36:00,
2013-09-14 13:37:00,77.9,45.7,30.00,NNE,21,8.3,8.3,32,0.00,,---,0.00,VWS V14.01,2013-09-14 17:37:00,
2013-09-14 13:38:00,77.9,45.7,30.00,NNE,21,8.3,8.3,32,0.00,,---,0.00,VWS V14.01,2013-09-14 17:38:00,
2013-09-14 13:39:00,77.9,45.7,30.00,NNE,21,8.3,8.3,32,0.00,,---,0.00,VWS V14.01,2013-09-14 17:39:00,
2013-09-14 13:40:00,78.3,46.0,30.00,NNW,338,3.1,3.1,32,0.00,,---,0.00,VWS V14.01,2013-09-14 17:40:00,
2013-09-14 13:41:00,78.3,46.0,30.00,NNW,338,3.1,3.1,32,0.00,,---,0.00,VWS V14.01,2013-09-14 17:41:00,
2013-09-14 13:42:00,78.3,46.0,30.00,NNW,338,3.1,3.1,32,0.00,,---,0.00,VWS V14.01,2013-09-14 17:42:00,
2013-09-14 13:43:00,78.3,46.0,30.00,NW,311,5.4,5.4,32,0.00,,---,0.00,VWS V14.01,2013-09-14 17:43:00,
2013-09-14 13:44:00,78.6,46.3,30.00,NNW,328,10.1,10.1,32,0.00,,---,0.00,VWS V14.01,2013-09-14 17:44:00,
2013-09-14 13:45:00,78.6,46.3,30.00,NNW,344,5.8,10.1,32,0.00,,---,0.00,VWS V14.01,2013-09-14 17:45:00,
2013-09-14 13:47:00,78.6,46.3,30.00,NNW,344,5.8,5.8,32,0.00,,---,0.00,VWS V14.01,2013-09-14 17:47:00,
2013-09-14 13:48:00,78.6,46.3,30.00,NNW,344,5.8,5.8,32,0.00,,---,0.00,VWS V14.01,2013-09-14 17:48:00,
2013-09-14 13:49:00,78.6,46.3,30.00,ENE,58,4.9,5.8,32,0.00,,---,0.00,VWS V14.01,2013-09-14 17:49:00,
2013-09-14 13:51:00,78.6,46.3,30.00,ENE,58,4.9,4.9,32,0.00,,---,0.00,VWS V14.01,2013-09-14 17:51:00,
2013-09-14 13:52:00,78.6,45.5,30.00,ENE,58,4.9,4.9,31,0.00,,---,0.00,VWS V14.01,2013-09-14 17:52:00,
2013-09-14 13:53:00,78.6,45.5,30.00,NE,36,3.6,4.9,31,0.00,,---,0.00,VWS V14.01,2013-09-14 17:53:00,
2013-09-14 13:54:00,78.6,45.5,30.00,North,9,5.4,5.4,31,0.00,,---,0.00,VWS V14.01,2013-09-14 17:54:00,
2013-09-14 13:55:00,78.6,45.5,30.00,SW,222,4.0,5.4,31,0.00,,---,0.00,VWS V14.01,2013-09-14 17:55:00,
2013-09-14 13:56:00,78.6,45.5,30.00,ENE,61,4.9,4.9,31,0.00,,---,0.00,VWS V14.01,2013-09-14 17:56:00,
2013-09-14 13:57:00,78.6,45.5,30.00,ENE,61,4.9,4.9,31,0.00,,---,0.00,VWS V14.01,2013-09-14 17:57:00,
2013-09-14 13:58:00,78.6,45.5,30.00,NNE,18,5.4,8.1,31,0.00,,---,0.00,VWS V14.01,2013-09-14 17:58:00,
2013-09-14 14:00:00,78.6,45.5,30.00,NE,34,9.2,9.2,31,0.00,,---,0.00,VWS V14.01,2013-09-14 18:00:00,
2013-09-14 14:02:00,78.6,45.5,30.00,NNE,20,5.8,9.2,31,0.00,,---,0.00,VWS V14.01,2013-09-14 18:02:00,
2013-09-14 14:03:00,78.6,45.5,30.00,NNE,20,5.8,5.8,31,0.00,,---,0.00,VWS V14.01,2013-09-14 18:03:00,
2013-09-14 14:05:00,78.3,46.0,30.00,NNE,20,5.8,5.8,32,0.00,,---,0.00,VWS V14.01,2013-09-14 18:05:00,
2013-09-14 14:07:00,78.3,46.0,30.00,NE,43,8.1,8.1,32,0.00,,---,0.00,VWS V14.01,2013-09-14 18:07:00,
2013-09-14 14:08:00,78.6,46.3,30.00,SSE,157,3.1,8.1,32,0.00,,---,0.00,VWS V14.01,2013-09-14 18:08:00,
2013-09-14 14:10:00,78.6,46.3,30.00,SSE,157,3.1,3.1,32,0.00,,---,0.00,VWS V14.01,2013-09-14 18:10:00,
2013-09-14 14:12:00,78.6,45.5,30.00,NNE,23,6.3,6.3,31,0.00,,---,0.00,VWS V14.01,2013-09-14 18:12:00,
2013-09-14 14:13:00,78.6,45.5,30.00,NNE,23,6.3,6.3,31,0.00,,---,0.00,VWS V14.01,2013-09-14 18:13:00,
2013-09-14 14:15:00,78.6,45.5,30.00,NNE,23,6.3,6.3,31,0.00,,---,0.00,VWS V14.01,2013-09-14 18:15:00,
2013-09-14 14:17:00,78.8,45.6,30.00,NNE,23,6.3,6.3,31,0.00,,---,0.00,VWS V14.01,2013-09-14 18:17:00,
2013-09-14 14:18:00,78.8,45.6,30.00,NNE,23,6.3,6.3,31,0.00,,---,0.00,VWS V14.01,2013-09-14 18:18:00,
2013-09-14 14:19:00,78.8,45.6,30.00,NNE,23,6.3,6.3,31,0.00,,---,0.00,VWS V14.01,2013-09-14 18:19:00,
2013-09-14 14:20:00,78.8,45.6,30.00,NNE,23,6.3,6.3,31,0.00,,---,0.00,VWS V14.01,2013-09-14 18:20:00,
2013-09-14 14:22:00,78.8,45.6,30.00,NNE,23,6.3,6.3,31,0.00,,---,0.00,VWS V14.01,2013-09-14 18:22:00,
2013-09-14 14:23:00,78.8,45.6,30.00,NNE,23,6.3,6.3,31,0.00,,---,0.00,VWS V14.01,2013-09-14 18:23:00,
2013-09-14 14:24:00,78.8,45.6,30.00,NNE,23,6.3,6.3,31,0.00,,---,0.00,VWS V14.01,2013-09-14 18:24:00,
2013-09-14 14:25:00,78.8,45.6,30.00,NNE,23,6.3,6.3,31,0.00,,---,0.00,VWS V14.01,2013-09-14 18:25:00,
2013-09-14 14:26:00,78.8,45.6,30.00,NE,43,5.8,6.3,31,0.00,,---,0.00,VWS V14.01,2013-09-14 18:26:00,
2013-09-14 14:27:00,78.8,45.6,30.00,NE,43,5.8,5.8,31,0.00,,---,0.00,VWS V14.01,2013-09-14 18:27:00,
2013-09-14 14:28:00,78.8,45.6,30.00,NE,43,5.8,5.8,31,0.00,,---,0.00,VWS V14.01,2013-09-14 18:28:00,
2013-09-14 14:29:00,78.8,45.6,30.00,NE,43,5.8,5.8,31,0.00,,---,0.00,VWS V14.01,2013-09-14 18:29:00,
2013-09-14 14:30:00,78.8,45.6,30.00,NE,43,5.8,5.8,31,0.00,,---,0.00,VWS V14.01,2013-09-14 18:30:00,
2013-09-14 14:31:00,78.8,45.6,30.00,NE,43,5.8,5.8,31,0.00,,---,0.00,VWS V14.01,2013-09-14 18:31:00,
2013-09-14 14:32:00,78.8,45.6,30.00,NE,43,5.8,5.8,31,0.00,,---,0.00,VWS V14.01,2013-09-14 18:32:00,
2013-09-14 14:33:00,78.8,45.6,30.00,NE,43,5.8,5.8,31,0.00,,---,0.00,VWS V14.01,2013-09-14 18:33:00,
2013-09-14 14:34:00,78.8,45.6,30.00,North,357,4.9,4.9,31,0.00,,---,0.00,VWS V14.01,2013-09-14 18:34:00,
2013-09-14 14:35:00,78.8,45.6,30.00,North,357,4.9,4.9,31,0.00,,---,0.00,VWS V14.01,2013-09-14 18:35:00,
2013-09-14 14:36:00,78.8,45.6,30.00,NNE,25,8.3,8.3,31,0.00,,---,0.00,VWS V14.01,2013-09-14 18:36:00,
2013-09-14 14:37:00,78.8,45.6,30.00,NNE,25,8.3,8.3,31,0.00,,---,0.00,VWS V14.01,2013-09-14 18:37:00,
2013-09-14 14:38:00,78.8,45.6,30.00,NNE,25,8.3,8.3,31,0.00,,---,0.00,VWS V14.01,2013-09-14 18:38:00,
2013-09-14 14:39:00,78.8,45.6,30.00,NE,48,4.0,8.3,31,0.00,,---,0.00,VWS V14.01,2013-09-14 18:39:00,
2013-09-14 14:40:00,78.8,45.6,30.00,NE,48,4.0,4.0,31,0.00,,---,0.00,VWS V14.01,2013-09-14 18:40:00,
2013-09-14 14:41:00,79.2,46.0,30.00,North,357,5.4,5.4,31,0.00,,---,0.00,VWS V14.01,2013-09-14 18:41:00,
2013-09-14 14:42:00,79.2,46.0,30.00,North,357,5.4,5.4,31,0.00,,---,0.00,VWS V14.01,2013-09-14 18:42:00,
2013-09-14 14:43:00,79.2,46.0,30.00,North,357,5.4,5.4,31,0.00,,---,0.00,VWS V14.01,2013-09-14 18:43:00,
2013-09-14 14:44:00,79.2,46.0,30.00,North,357,5.4,5.4,31,0.00,,---,0.00,VWS V14.01,2013-09-14 18:44:00,
2013-09-14 14:45:00,79.2,46.0,30.00,North,357,5.4,5.4,31,0.00,,---,0.00,VWS V14.01,2013-09-14 18:45:00,
2013-09-14 14:46:00,79.2,46.0,30.00,North,357,5.4,5.4,31,0.00,,---,0.00,VWS V14.01,2013-09-14 18:46:00,
2013-09-14 14:47:00,79.2,46.0,30.00,NNE,30,5.4,5.4,31,0.00,,---,0.00,VWS V14.01,2013-09-14 18:47:00,
2013-09-14 14:48:00,79.2,46.0,30.00,NNE,30,5.4,5.4,31,0.00,,---,0.00,VWS V14.01,2013-09-14 18:48:00,
2013-09-14 14:49:00,78.6,45.5,30.00,NNE,30,5.4,5.4,31,0.00,,---,0.00,VWS V14.01,2013-09-14 18:49:00,
2013-09-14 14:50:00,78.3,45.2,30.00,NNE,30,5.4,5.4,31,0.00,,---,0.00,VWS V14.01,2013-09-14 18:50:00,
2013-09-14 14:51:00,78.3,45.2,30.00,NNE,30,5.4,5.4,31,0.00,,---,0.00,VWS V14.01,2013-09-14 18:51:00,
2013-09-14 14:52:00,77.9,44.9,30.00,NNE,30,5.4,5.4,31,0.00,,---,0.00,VWS V14.01,2013-09-14 18:52:00,
2013-09-14 14:53:00,77.9,44.9,30.00,NNE,30,5.4,5.4,31,0.00,,---,0.00,VWS V14.01,2013-09-14 18:53:00,
2013-09-14 14:54:00,77.9,44.9,30.00,NNE,30,5.4,5.4,31,0.00,,---,0.00,VWS V14.01,2013-09-14 18:54:00,
2013-09-14 14:55:00,77.7,45.5,30.00,NNE,30,5.4,5.4,32,0.00,,---,0.00,VWS V14.01,2013-09-14 18:55:00,
2013-09-14 14:57:00,77.7,45.5,30.00,NNE,30,5.4,5.4,32,0.00,,---,0.00,VWS V14.01,2013-09-14 18:57:00,
2013-09-14 14:58:00,77.7,45.5,30.00,NNE,30,5.4,5.4,32,0.00,,---,0.00,VWS V14.01,2013-09-14 18:58:00,
2013-09-14 14:59:00,77.7,45.5,30.00,NNE,30,5.4,5.4,32,0.00,,---,0.00,VWS V14.01,2013-09-14 18:59:00,
2013-09-14 15:00:00,77.5,45.4,30.00,NNE,30,5.4,5.4,32,0.00,,---,0.00,VWS V14.01,2013-09-14 19:00:00,
2013-09-14 15:02:00,77.5,45.4,30.00,NNE,30,5.4,5.4,32,0.00,,---,0.00,VWS V14.01,2013-09-14 19:02:00,
2013-09-14 15:03:00,77.5,45.4,30.00,North,0,6.3,6.3,32,0.00,,---,0.00,VWS V14.01,2013-09-14 19:03:00,
2013-09-14 15:04:00,77.5,45.4,30.00,North,0,6.3,6.3,32,0.00,,---,0.00,VWS V14.01,2013-09-14 19:04:00,
2013-09-14 15:05:00,77.7,45.5,30.00,East,86,3.6,6.3,32,0.00,,---,0.00,VWS V14.01,2013-09-14 19:05:00,
2013-09-14 15:06:00,77.7,45.5,30.00,East,86,3.6,3.6,32,0.00,,---,0.00,VWS V14.01,2013-09-14 19:06:00,
2013-09-14 15:07:00,77.7,45.5,30.00,East,86,3.6,3.6,32,0.00,,---,0.00,VWS V14.01,2013-09-14 19:07:00,
2013-09-14 15:08:00,77.7,45.5,30.00,East,86,3.6,3.6,32,0.00,,---,0.00,VWS V14.01,2013-09-14 19:08:00,
2013-09-14 15:09:00,77.7,45.5,30.00,East,86,3.6,3.6,32,0.00,,---,0.00,VWS V14.01,2013-09-14 19:09:00,
2013-09-14 15:10:00,77.7,45.5,30.00,East,86,3.6,3.6,32,0.00,,---,0.00,VWS V14.01,2013-09-14 19:10:00,
2013-09-14 15:11:00,77.7,45.5,30.00,East,86,3.6,3.6,32,0.00,,---,0.00,VWS V14.01,2013-09-14 19:11:00,
2013-09-14 15:12:00,77.7,45.5,30.00,NW,312,4.0,4.0,32,0.00,,---,0.00,VWS V14.01,2013-09-14 19:12:00,
2013-09-14 15:13:00,77.7,45.5,30.00,NW,312,4.0,4.0,32,0.00,,---,0.00,VWS V14.01,2013-09-14 19:13:00,
2013-09-14 15:14:00,77.7,45.5,30.00,ENE,61,10.5,10.5,32,0.00,,---,0.00,VWS V14.01,2013-09-14 19:14:00,
2013-09-14 15:15:00,78.4,46.2,30.00,ENE,61,10.5,10.5,32,0.00,,---,0.00,VWS V14.01,2013-09-14 19:15:00,
2013-09-14 15:17:00,78.4,46.2,30.00,North,4,5.8,5.8,32,0.00,,---,0.00,VWS V14.01,2013-09-14 19:17:00,
2013-09-14 15:18:00,78.4,46.2,30.00,North,4,5.8,5.8,32,0.00,,---,0.00,VWS V14.01,2013-09-14 19:18:00,
2013-09-14 15:19:00,78.4,46.2,30.00,North,4,5.8,5.8,32,0.00,,---,0.00,VWS V14.01,2013-09-14 19:19:00,
2013-09-14 15:20:00,78.4,46.2,30.00,North,4,5.8,5.8,32,0.00,,---,0.00,VWS V14.01,2013-09-14 19:20:00,
2013-09-14 15:22:00,78.3,46.0,30.00,North,4,5.8,5.8,32,0.00,,---,0.00,VWS V14.01,2013-09-14 19:22:00,
2013-09-14 15:23:00,78.1,45.8,30.00,NNW,337,4.9,5.8,32,0.00,,---,0.00,VWS V14.01,2013-09-14 19:23:00,
2013-09-14 15:24:00,78.1,45.8,30.00,NNW,337,4.9,4.9,32,0.00,,---,0.00,VWS V14.01,2013-09-14 19:24:00,
2013-09-14 15:25:00,78.1,45.8,30.00,NNW,337,4.9,4.9,32,0.00,,---,0.00,VWS V14.01,2013-09-14 19:25:00,
2013-09-14 15:27:00,77.9,45.7,30.00,NNW,337,4.9,4.9,32,0.00,,---,0.00,VWS V14.01,2013-09-14 19:27:00,
2013-09-14 15:28:00,77.9,45.7,30.00,NNW,337,4.9,4.9,32,0.00,,---,0.00,VWS V14.01,2013-09-14 19:28:00,
2013-09-14 15:29:00,78.1,45.8,30.00,WNW,297,6.3,6.3,32,0.00,,---,0.00,VWS V14.01,2013-09-14 19:29:00,
2013-09-14 15:30:00,78.1,45.8,30.00,NNE,22,8.3,8.3,32,0.00,,---,0.00,VWS V14.01,2013-09-14 19:30:00,
2013-09-14 15:32:00,78.1,45.8,30.00,NNE,22,8.3,8.3,32,0.00,,---,0.00,VWS V14.01,2013-09-14 19:32:00,
2013-09-14 15:33:00,78.1,45.8,30.00,NW,313,5.8,5.8,32,0.00,,---,0.00,VWS V14.01,2013-09-14 19:33:00,
2013-09-14 15:34:00,78.1,45.8,30.00,North,9,4.5,5.8,32,0.00,,---,0.00,VWS V14.01,2013-09-14 19:34:00,
2013-09-14 15:35:00,78.1,45.8,30.00,North,9,4.5,4.5,32,0.00,,---,0.00,VWS V14.01,2013-09-14 19:35:00,
2013-09-14 15:37:00,78.3,46.0,30.00,North,0,4.9,4.9,32,0.00,,---,0.00,VWS V14.01,2013-09-14 19:37:00,
2013-09-14 15:38:00,78.3,46.0,30.00,North,0,4.9,4.9,32,0.00,,---,0.00,VWS V14.01,2013-09-14 19:38:00,
2013-09-14 15:39:00,78.3,46.0,30.00,North,0,4.9,4.9,32,0.00,,---,0.00,VWS V14.01,2013-09-14 19:39:00,
2013-09-14 15:40:00,78.3,46.0,30.00,North,9,4.9,4.9,32,0.00,,---,0.00,VWS V14.01,2013-09-14 19:40:00,
2013-09-14 15:42:00,77.9,45.7,30.00,North,9,4.9,4.9,32,0.00,,---,0.00,VWS V14.01,2013-09-14 19:42:00,
2013-09-14 15:43:00,77.9,45.7,30.00,North,9,4.9,4.9,32,0.00,,---,0.00,VWS V14.01,2013-09-14 19:43:00,
2013-09-14 15:44:00,77.9,45.7,30.00,North,9,4.9,4.9,32,0.00,,---,0.00,VWS V14.01,2013-09-14 19:44:00,
2013-09-14 15:45:00,77.9,45.7,30.00,North,9,4.9,4.9,32,0.00,,---,0.00,VWS V14.01,2013-09-14 19:45:00,
2013-09-14 15:47:00,78.1,45.8,30.00,North,9,4.9,4.9,32,0.00,,---,0.00,VWS V14.01,2013-09-14 19:47:00,
2013-09-14 15:48:00,78.1,45.8,30.00,North,9,4.9,4.9,32,0.00,,---,0.00,VWS V14.01,2013-09-14 19:48:00,
2013-09-14 15:49:00,78.1,45.8,30.00,North,9,8.1,8.1,32,0.00,,---,0.00,VWS V14.01,2013-09-14 19:49:00,
2013-09-14 15:50:00,78.1,45.8,30.00,North,9,8.1,8.1,32,0.00,,---,0.00,VWS V14.01,2013-09-14 19:50:00,
2013-09-14 15:52:00,78.6,46.3,30.00,North,9,8.1,8.1,32,0.00,,---,0.00,VWS V14.01,2013-09-14 19:52:00,
2013-09-14 15:53:00,78.6,46.3,30.00,North,9,8.1,8.1,32,0.00,,---,0.00,VWS V14.01,2013-09-14 19:53:00,
2013-09-14 15:54:00,78.6,46.3,30.00,North,9,8.1,8.1,32,0.00,,---,0.00,VWS V14.01,2013-09-14 19:54:00,
2013-09-14 15:55:00,78.6,46.3,30.00,North,10,5.8,8.1,32,0.00,,---,0.00,VWS V14.01,2013-09-14 19:55:00,
2013-09-14 15:58:00,78.6,46.3,30.00,North,10,5.8,5.8,32,0.00,,---,0.00,VWS V14.01,2013-09-14 19:58:00,
2013-09-14 15:59:00,78.6,46.3,30.00,North,10,5.8,5.8,32,0.00,,---,0.00,VWS V14.01,2013-09-14 19:59:00,
2013-09-14 16:00:00,78.6,46.3,30.00,North,10,5.8,5.8,32,0.00,,---,0.00,VWS V14.01,2013-09-14 20:00:00,
2013-09-14 16:03:00,78.4,46.2,30.00,North,10,5.8,5.8,32,0.00,,---,0.00,VWS V14.01,2013-09-14 20:03:00,
2013-09-14 16:04:00,78.4,46.2,30.00,North,10,5.8,5.8,32,0.00,,---,0.00,VWS V14.01,2013-09-14 20:04:00,
2013-09-14 16:05:00,78.4,46.2,30.00,North,10,5.8,5.8,32,0.00,,---,0.00,VWS V14.01,2013-09-14 20:05:00,
2013-09-14 16:08:00,78.4,46.2,30.00,North,10,5.8,5.8,32,0.00,,---,0.00,VWS V14.01,2013-09-14 20:08:00,
2013-09-14 16:09:00,78.4,46.2,30.00,North,10,5.8,5.8,32,0.00,,---,0.00,VWS V14.01,2013-09-14 20:09:00,
2013-09-14 16:10:00,77.5,45.4,30.00,ENE,61,3.6,5.8,32,0.00,,---,0.00,VWS V14.01,2013-09-14 20:10:00,
2013-09-14 16:13:00,77.4,45.2,30.00,ENE,61,3.6,3.6,32,0.00,,---,0.00,VWS V14.01,2013-09-14 20:13:00,
2013-09-14 16:14:00,77.4,45.2,30.00,ENE,61,3.6,3.6,32,0.00,,---,0.00,VWS V14.01,2013-09-14 20:14:00,
2013-09-14 16:15:00,77.4,45.2,30.00,ENE,61,3.6,3.6,32,0.00,,---,0.00,VWS V14.01,2013-09-14 20:15:00,
2013-09-14 16:19:00,77.4,45.2,30.00,ENE,61,3.6,3.6,32,0.00,,---,0.00,VWS V14.01,2013-09-14 20:19:00,
2013-09-14 16:20:00,77.4,45.2,30.00,ENE,61,3.6,3.6,32,0.00,,---,0.00,VWS V14.01,2013-09-14 20:20:00,
2013-09-14 16:21:00,77.4,45.2,30.00,ENE,61,3.6,3.6,32,0.00,,---,0.00,VWS V14.01,2013-09-14 20:21:00,
2013-09-14 16:23:00,77.4,45.2,30.00,ENE,61,3.6,3.6,32,0.00,,---,0.00,VWS V14.01,2013-09-14 20:23:00,
2013-09-14 16:24:00,77.4,45.2,30.00,ENE,61,3.6,3.6,32,0.00,,---,0.00,VWS V14.01,2013-09-14 20:24:00,
2013-09-14 16:25:00,77.4,45.2,30.00,ENE,61,3.6,3.6,32,0.00,,---,0.00,VWS V14.01,2013-09-14 20:25:00,
2013-09-14 16:26:00,77.4,45.2,30.00,ENE,61,3.6,3.6,32,0.00,,---,0.00,VWS V14.01,2013-09-14 20:26:00,
2013-09-14 16:29:00,77.4,45.2,30.00,ENE,61,3.6,3.6,32,0.00,,---,0.00,VWS V14.01,2013-09-14 20:29:00,
2013-09-14 16:30:00,77.4,45.2,30.00,ENE,61,3.6,3.6,32,0.00,,---,0.00,VWS V14.01,2013-09-14 20:30:00,
2013-09-14 16:31:00,77.4,45.2,30.00,ENE,61,3.6,3.6,32,0.00,,---,0.00,VWS V14.01,2013-09-14 20:31:00,
2013-09-14 16:34:00,77.2,45.1,30.00,ENE,61,3.6,3.6,32,0.00,,---,0.00,VWS V14.01,2013-09-14 20:34:00,
2013-09-14 16:35:00,77.2,45.1,30.00,ENE,61,3.6,3.6,32,0.00,,---,0.00,VWS V14.01,2013-09-14 20:35:00,
2013-09-14 16:36:00,77.2,45.1,30.00,ENE,61,3.6,3.6,32,0.00,,---,0.00,VWS V14.01,2013-09-14 20:36:00,
2013-09-14 16:39:00,77.2,45.1,30.00,NE,44,4.0,4.0,32,0.00,,---,0.00,VWS V14.01,2013-09-14 20:39:00,
2013-09-14 16:40:00,76.8,45.6,30.00,NW,317,0.0,4.0,33,0.00,,---,0.00,VWS V14.01,2013-09-14 20:40:00,
2013-09-14 16:41:00,76.8,45.6,30.00,NW,317,0.0,0.0,33,0.00,,---,0.00,VWS V14.01,2013-09-14 20:41:00,
2013-09-14 16:44:00,76.8,45.6,30.03,NW,317,0.0,0.0,33,0.00,,---,0.00,VWS V14.01,2013-09-14 20:44:00,
2013-09-14 16:45:00,76.8,45.6,30.03,NW,317,0.0,0.0,33,0.00,,---,0.00,VWS V14.01,2013-09-14 20:45:00,
2013-09-14 16:46:00,76.8,45.6,30.03,North,0,4.0,6.3,33,0.00,,---,0.00,VWS V14.01,2013-09-14 20:46:00,
2013-09-14 16:49:00,76.8,45.6,30.03,North,0,4.0,4.0,33,0.00,,---,0.00,VWS V14.01,2013-09-14 20:49:00,
2013-09-14 16:50:00,76.8,45.6,30.03,North,0,4.0,4.0,33,0.00,,---,0.00,VWS V14.01,2013-09-14 20:50:00,
2013-09-14 16:51:00,76.5,45.2,30.03,North,0,4.0,4.0,33,0.00,,---,0.00,VWS V14.01,2013-09-14 20:51:00,
2013-09-14 16:54:00,76.3,45.1,30.03,North,0,4.0,4.0,33,0.00,,---,0.00,VWS V14.01,2013-09-14 20:54:00,
2013-09-14 16:55:00,76.3,45.1,30.03,North,0,4.0,4.0,33,0.00,,---,0.00,VWS V14.01,2013-09-14 20:55:00,
2013-09-14 16:57:00,76.1,44.9,30.03,North,0,4.0,4.0,33,0.00,,---,0.00,VWS V14.01,2013-09-14 20:57:00,
2013-09-14 16:59:00,76.1,44.9,30.03,North,0,4.0,4.0,33,0.00,,---,0.00,VWS V14.01,2013-09-14 20:59:00,
2013-09-14 17:00:00,76.1,44.9,30.03,NE,36,3.1,4.0,33,0.00,,---,0.00,VWS V14.01,2013-09-14 21:00:00,
2013-09-14 17:01:00,76.1,44.9,30.03,NE,36,3.1,3.1,33,0.00,,---,0.00,VWS V14.01,2013-09-14 21:01:00,
2013-09-14 17:02:00,76.3,45.9,30.03,NE,36,3.1,3.1,34,0.00,,---,0.00,VWS V14.01,2013-09-14 21:02:00,
2013-09-14 17:04:00,76.3,45.9,30.03,NW,310,2.7,3.1,34,0.00,,---,0.00,VWS V14.01,2013-09-14 21:04:00,
2013-09-14 17:05:00,76.5,45.2,30.03,NW,310,2.7,2.7,33,0.00,,---,0.00,VWS V14.01,2013-09-14 21:05:00,
2013-09-14 17:06:00,76.5,45.2,30.03,NW,310,2.7,2.7,33,0.00,,---,0.00,VWS V14.01,2013-09-14 21:06:00,
2013-09-14 17:08:00,76.5,45.2,30.03,NW,310,2.7,2.7,33,0.00,,---,0.00,VWS V14.01,2013-09-14 21:08:00,
2013-09-14 17:09:00,76.5,45.2,30.03,NW,310,2.7,2.7,33,0.00,,---,0.00,VWS V14.01,2013-09-14 21:09:00,
2013-09-14 17:10:00,76.5,45.2,30.03,NW,310,2.7,2.7,33,0.00,,---,0.00,VWS V14.01,2013-09-14 21:10:00,
2013-09-14 17:11:00,76.5,45.2,30.03,NW,310,2.7,2.7,33,0.00,,---,0.00,VWS V14.01,2013-09-14 21:11:00,
2013-09-14 17:12:00,76.5,45.2,30.03,NW,310,2.7,2.7,33,0.00,,---,0.00,VWS V14.01,2013-09-14 21:12:00,
2013-09-14 17:13:00,76.5,45.2,30.03,NW,310,2.7,2.7,33,0.00,,---,0.00,VWS V14.01,2013-09-14 21:13:00,
2013-09-14 17:14:00,76.5,45.2,30.03,NW,310,2.7,2.7,33,0.00,,---,0.00,VWS V14.01,2013-09-14 21:14:00,
2013-09-14 17:15:00,76.5,45.2,30.03,NW,310,2.7,2.7,33,0.00,,---,0.00,VWS V14.01,2013-09-14 21:15:00,
2013-09-14 17:16:00,76.5,45.2,30.03,NW,310,2.7,2.7,33,0.00,,---,0.00,VWS V14.01,2013-09-14 21:16:00,
2013-09-14 17:17:00,76.5,45.2,30.03,NW,310,2.7,2.7,33,0.00,,---,0.00,VWS V14.01,2013-09-14 21:17:00,
2013-09-14 17:18:00,76.5,45.2,30.03,NW,310,2.7,2.7,33,0.00,,---,0.00,VWS V14.01,2013-09-14 21:18:00,
2013-09-14 17:19:00,75.9,45.6,30.03,NW,310,2.7,2.7,34,0.00,,---,0.00,VWS V14.01,2013-09-14 21:19:00,
2013-09-14 17:20:00,75.9,45.6,30.03,NW,310,2.7,2.7,34,0.00,,---,0.00,VWS V14.01,2013-09-14 21:20:00,
2013-09-14 17:21:00,75.9,45.6,30.03,NW,310,2.7,2.7,34,0.00,,---,0.00,VWS V14.01,2013-09-14 21:21:00,
2013-09-14 17:22:00,75.9,45.6,30.03,NW,310,2.7,2.7,34,0.00,,---,0.00,VWS V14.01,2013-09-14 21:22:00,
2013-09-14 17:23:00,75.9,45.6,30.03,NNW,335,5.4,5.4,34,0.00,,---,0.00,VWS V14.01,2013-09-14 21:23:00,
2013-09-14 17:24:00,75.9,45.6,30.03,NNW,335,5.4,5.4,34,0.00,,---,0.00,VWS V14.01,2013-09-14 21:24:00,
2013-09-14 17:25:00,75.9,45.6,30.03,NNW,335,5.4,5.4,34,0.00,,---,0.00,VWS V14.01,2013-09-14 21:25:00,
2013-09-14 17:27:00,75.9,45.6,30.03,NE,55,4.0,5.4,34,0.00,,---,0.00,VWS V14.01,2013-09-14 21:27:00,
2013-09-14 17:28:00,75.4,45.9,30.03,NE,55,4.0,4.0,35,0.00,,---,0.00,VWS V14.01,2013-09-14 21:28:00,
2013-09-14 17:29:00,75.4,45.9,30.03,NE,55,4.0,4.0,35,0.00,,---,0.00,VWS V14.01,2013-09-14 21:29:00,
2013-09-14 17:30:00,75.4,45.9,30.03,North,353,2.2,2.2,35,0.00,,---,0.00,VWS V14.01,2013-09-14 21:30:00,
2013-09-14 17:32:00,75.4,45.9,30.03,NNE,14,4.0,4.0,35,0.00,,---,0.00,VWS V14.01,2013-09-14 21:32:00,
2013-09-14 17:33:00,75.4,45.9,30.03,NNE,14,4.0,4.0,35,0.00,,---,0.00,VWS V14.01,2013-09-14 21:33:00,
2013-09-14 17:34:00,75.4,45.9,30.03,NNE,14,4.0,4.0,35,0.00,,---,0.00,VWS V14.01,2013-09-14 21:34:00,
2013-09-14 17:35:00,75.4,45.9,30.03,NNE,14,4.0,4.0,35,0.00,,---,0.00,VWS V14.01,2013-09-14 21:35:00,
2013-09-14 17:36:00,75.4,45.9,30.03,NNE,14,4.0,4.0,35,0.00,,---,0.00,VWS V14.01,2013-09-14 21:36:00,
2013-09-14 17:37:00,75.4,45.9,30.03,NNE,14,4.0,4.0,35,0.00,,---,0.00,VWS V14.01,2013-09-14 21:37:00,
2013-09-14 17:39:00,75.4,45.9,30.03,NNE,14,4.0,4.0,35,0.00,,---,0.00,VWS V14.01,2013-09-14 21:39:00,
2013-09-14 17:40:00,75.4,45.1,30.03,NE,38,2.7,4.0,34,0.00,,---,0.00,VWS V14.01,2013-09-14 21:40:00,
2013-09-14 17:41:00,75.4,45.1,30.03,NE,38,2.7,4.0,34,0.00,,---,0.00,VWS V14.01,2013-09-14 21:41:00,
2013-09-14 17:42:00,75.4,45.1,30.03,NE,38,2.7,2.7,34,0.00,,---,0.00,VWS V14.01,2013-09-14 21:42:00,
2013-09-14 17:44:00,75.4,45.1,30.03,NE,38,2.7,2.7,34,0.00,,---,0.00,VWS V14.01,2013-09-14 21:44:00,
2013-09-14 17:46:00,75.4,45.1,30.03,NE,38,2.7,2.7,34,0.00,,---,0.00,VWS V14.01,2013-09-14 21:46:00,
2013-09-14 17:47:00,75.4,45.1,30.03,NE,38,2.7,2.7,34,0.00,,---,0.00,VWS V14.01,2013-09-14 21:47:00,
2013-09-14 17:49:00,75.4,45.1,30.03,NE,38,2.7,2.7,34,0.00,,---,0.00,VWS V14.01,2013-09-14 21:49:00,
2013-09-14 17:50:00,75.4,45.1,30.03,NE,38,2.7,2.7,34,0.00,,---,0.00,VWS V14.01,2013-09-14 21:50:00,
2013-09-14 17:51:00,75.4,45.1,30.03,NE,38,2.7,2.7,34,0.00,,---,0.00,VWS V14.01,2013-09-14 21:51:00,
2013-09-14 17:52:00,75.4,45.1,30.03,NE,38,2.7,2.7,34,0.00,,---,0.00,VWS V14.01,2013-09-14 21:52:00,
2013-09-14 17:53:00,75.0,45.5,30.03,NE,38,2.7,2.7,35,0.00,,---,0.00,VWS V14.01,2013-09-14 21:53:00,
2013-09-14 17:54:00,75.0,45.5,30.03,NE,38,2.7,2.7,35,0.00,,---,0.00,VWS V14.01,2013-09-14 21:54:00,
2013-09-14 17:55:00,75.0,45.5,30.03,NE,38,2.7,2.7,35,0.00,,---,0.00,VWS V14.01,2013-09-14 21:55:00,
2013-09-14 17:56:00,75.0,45.5,30.03,NE,38,2.7,2.7,35,0.00,,---,0.00,VWS V14.01,2013-09-14 21:56:00,
2013-09-14 17:58:00,75.0,45.5,30.03,NNE,32,5.8,5.8,35,0.00,,---,0.00,VWS V14.01,2013-09-14 21:58:00,
2013-09-14 17:59:00,75.0,45.5,30.03,NNE,32,5.8,5.8,35,0.00,,---,0.00,VWS V14.01,2013-09-14 21:59:00,
2013-09-14 18:00:00,74.8,45.4,30.03,NNE,32,5.8,5.8,35,0.00,,---,0.00,VWS V14.01,2013-09-14 22:00:00,
2013-09-14 18:01:00,74.8,45.4,30.03,NNE,32,5.8,5.8,35,0.00,,---,0.00,VWS V14.01,2013-09-14 22:01:00,
2013-09-14 18:03:00,74.8,45.4,30.03,NNE,32,5.8,5.8,35,0.00,,---,0.00,VWS V14.01,2013-09-14 22:03:00,
2013-09-14 18:04:00,74.8,45.4,30.03,NNE,32,5.8,5.8,35,0.00,,---,0.00,VWS V14.01,2013-09-14 22:04:00,
2013-09-14 18:05:00,74.8,45.4,30.03,NNE,32,5.8,5.8,35,0.00,,---,0.00,VWS V14.01,2013-09-14 22:05:00,
2013-09-14 18:06:00,74.7,45.2,30.03,NNE,32,5.8,5.8,35,0.00,,---,0.00,VWS V14.01,2013-09-14 22:06:00,
2013-09-14 18:08:00,74.7,45.2,30.03,NE,48,3.6,3.6,35,0.00,,---,0.00,VWS V14.01,2013-09-14 22:08:00,
2013-09-14 18:09:00,74.7,45.2,30.03,NE,48,3.6,3.6,35,0.00,,---,0.00,VWS V14.01,2013-09-14 22:09:00,
2013-09-14 18:10:00,74.7,45.2,30.03,NE,48,3.6,3.6,35,0.00,,---,0.00,VWS V14.01,2013-09-14 22:10:00,
2013-09-14 18:11:00,74.7,45.2,30.03,NE,48,3.6,3.6,35,0.00,,---,0.00,VWS V14.01,2013-09-14 22:11:00,
2013-09-14 18:13:00,74.7,45.2,30.03,NE,48,3.6,3.6,35,0.00,,---,0.00,VWS V14.01,2013-09-14 22:13:00,
2013-09-14 18:14:00,74.7,45.2,30.03,NE,48,3.6,3.6,35,0.00,,---,0.00,VWS V14.01,2013-09-14 22:14:00,
2013-09-14 18:15:00,74.7,45.2,30.03,NE,48,3.6,3.6,35,0.00,,---,0.00,VWS V14.01,2013-09-14 22:15:00,
2013-09-14 18:16:00,74.7,45.2,30.03,NE,48,3.6,3.6,35,0.00,,---,0.00,VWS V14.01,2013-09-14 22:16:00,
2013-09-14 18:18:00,74.5,45.1,30.03,NE,48,3.6,3.6,35,0.00,,---,0.00,VWS V14.01,2013-09-14 22:18:00,
2013-09-14 18:19:00,74.5,45.1,30.03,NE,48,3.6,3.6,35,0.00,,---,0.00,VWS V14.01,2013-09-14 22:19:00,
2013-09-14 18:20:00,74.5,45.1,30.03,NE,52,2.7,2.7,35,0.00,,---,0.00,VWS V14.01,2013-09-14 22:20:00,
2013-09-14 18:21:00,74.5,45.1,30.03,NE,52,2.7,2.7,35,0.00,,---,0.00,VWS V14.01,2013-09-14 22:21:00,
2013-09-14 18:24:00,74.5,45.1,30.06,NNE,22,3.1,3.1,35,0.00,,---,0.00,VWS V14.01,2013-09-14 22:24:00,
2013-09-14 18:25:00,74.5,45.1,30.06,NNE,22,3.1,3.1,35,0.00,,---,0.00,VWS V14.01,2013-09-14 22:25:00,
2013-09-14 18:26:00,74.5,45.1,30.06,SE,136,2.2,2.2,35,0.00,,---,0.00,VWS V14.01,2013-09-14 22:26:00,
2013-09-14 18:29:00,74.5,45.1,30.06,NNE,26,4.9,4.9,35,0.00,,---,0.00,VWS V14.01,2013-09-14 22:29:00,
2013-09-14 18:30:00,74.1,44.8,30.06,NNE,26,4.9,4.9,35,0.00,,---,0.00,VWS V14.01,2013-09-14 22:30:00,
2013-09-14 18:31:00,74.1,44.8,30.06,NNE,26,4.9,4.9,35,0.00,,---,0.00,VWS V14.01,2013-09-14 22:31:00,
2013-09-14 18:34:00,74.1,44.8,30.06,North,0,4.0,4.0,35,0.00,,---,0.00,VWS V14.01,2013-09-14 22:34:00,
2013-09-14 18:35:00,74.1,44.8,30.06,North,0,3.6,4.0,35,0.00,,---,0.00,VWS V14.01,2013-09-14 22:35:00,
2013-09-14 18:36:00,73.9,44.6,30.06,North,0,3.6,3.6,35,0.00,,---,0.00,VWS V14.01,2013-09-14 22:36:00,
2013-09-14 18:39:00,73.9,44.6,30.06,North,0,3.6,3.6,35,0.00,,---,0.00,VWS V14.01,2013-09-14 22:39:00,
2013-09-14 18:40:00,73.9,44.6,30.06,North,0,3.6,3.6,35,0.00,,---,0.00,VWS V14.01,2013-09-14 22:40:00,
2013-09-14 18:41:00,73.8,44.4,30.06,North,0,3.6,3.6,35,0.00,,---,0.00,VWS V14.01,2013-09-14 22:41:00,
2013-09-14 18:44:00,73.8,44.4,30.06,North,0,3.6,3.6,35,0.00,,---,0.00,VWS V14.01,2013-09-14 22:44:00,
2013-09-14 18:45:00,73.6,45.0,30.03,North,0,3.6,3.6,36,0.00,,---,0.00,VWS V14.01,2013-09-14 22:45:00,
2013-09-14 18:46:00,73.6,45.0,30.03,NNE,20,0.0,0.0,36,0.00,,---,0.00,VWS V14.01,2013-09-14 22:46:00,
2013-09-14 18:47:00,73.6,45.0,30.03,NNE,20,0.0,0.0,36,0.00,,---,0.00,VWS V14.01,2013-09-14 22:47:00,
2013-09-14 18:49:00,73.6,45.0,30.03,NE,56,3.1,3.1,36,0.00,,---,0.00,VWS V14.01,2013-09-14 22:49:00,
2013-09-14 18:50:00,73.6,45.0,30.03,NE,56,3.1,3.1,36,0.00,,---,0.00,VWS V14.01,2013-09-14 22:50:00,
2013-09-14 18:51:00,73.6,45.0,30.03,North,357,0.0,0.0,36,0.00,,---,0.00,VWS V14.01,2013-09-14 22:51:00,
2013-09-14 18:52:00,73.6,45.0,30.03,North,357,0.0,0.0,36,0.00,,---,0.00,VWS V14.01,2013-09-14 22:52:00,
2013-09-14 18:54:00,73.2,45.4,30.03,North,357,0.0,0.0,37,0.00,,---,0.00,VWS V14.01,2013-09-14 22:54:00,
2013-09-14 18:55:00,73.2,45.4,30.03,North,357,0.0,0.0,37,0.00,,---,0.00,VWS V14.01,2013-09-14 22:55:00,
2013-09-14 18:56:00,73.2,45.4,30.03,North,357,0.0,0.0,37,0.00,,---,0.00,VWS V14.01,2013-09-14 22:56:00,
2013-09-14 18:57:00,73.2,45.4,30.03,North,357,0.0,0.0,37,0.00,,---,0.00,VWS V14.01,2013-09-14 22:57:00,
2013-09-14 18:59:00,73.2,45.4,30.03,North,357,0.0,0.0,37,0.00,,---,0.00,VWS V14.01,2013-09-14 22:59:00,
2013-09-14 19:00:00,73.2,45.4,30.03,North,357,0.0,0.0,37,0.00,,---,0.00,VWS V14.01,2013-09-14 23:00:00,
2013-09-14 19:01:00,73.2,45.4,30.03,North,357,0.0,0.0,37,0.00,,---,0.00,VWS V14.01,2013-09-14 23:01:00,
2013-09-14 19:02:00,73.2,45.4,30.03,North,357,0.0,0.0,37,0.00,,---,0.00,VWS V14.01,2013-09-14 23:02:00,
2013-09-14 19:04:00,73.2,45.4,30.03,North,357,0.0,0.0,37,0.00,,---,0.00,VWS V14.01,2013-09-14 23:04:00,
2013-09-14 19:06:00,72.9,46.5,30.03,North,357,0.0,0.0,39,0.00,,---,0.00,VWS V14.01,2013-09-14 23:06:00,
2013-09-14 19:07:00,72.7,46.3,30.03,North,357,0.0,0.0,39,0.00,,---,0.00,VWS V14.01,2013-09-14 23:07:00,
2013-09-14 19:09:00,72.7,46.3,30.03,North,357,0.0,0.0,39,0.00,,---,0.00,VWS V14.01,2013-09-14 23:09:00,
2013-09-14 19:11:00,72.7,46.3,30.03,North,357,0.0,0.0,39,0.00,,---,0.00,VWS V14.01,2013-09-14 23:11:00,
2013-09-14 19:12:00,72.7,46.3,30.03,North,357,0.0,0.0,39,0.00,,---,0.00,VWS V14.01,2013-09-14 23:12:00,
2013-09-14 19:15:00,72.7,46.3,30.03,North,357,0.0,0.0,39,0.00,,---,0.00,VWS V14.01,2013-09-14 23:15:00,
2013-09-14 19:16:00,72.7,46.3,30.06,North,357,0.0,0.0,39,0.00,,---,0.00,VWS V14.01,2013-09-14 23:16:00,
2013-09-14 19:17:00,72.3,47.3,30.06,North,357,0.0,0.0,41,0.00,,---,0.00,VWS V14.01,2013-09-14 23:17:00,
2013-09-14 19:20:00,72.3,47.3,30.06,North,357,0.0,0.0,41,0.00,,---,0.00,VWS V14.01,2013-09-14 23:20:00,
2013-09-14 19:21:00,72.3,47.3,30.06,North,357,0.0,0.0,41,0.00,,---,0.00,VWS V14.01,2013-09-14 23:21:00,
2013-09-14 19:22:00,72.3,47.3,30.06,North,357,0.0,0.0,41,0.00,,---,0.00,VWS V14.01,2013-09-14 23:22:00,
2013-09-14 19:25:00,72.3,47.3,30.06,North,357,0.0,0.0,41,0.00,,---,0.00,VWS V14.01,2013-09-14 23:25:00,
2013-09-14 19:26:00,72.3,47.3,30.06,North,357,0.0,0.0,41,0.00,,---,0.00,VWS V14.01,2013-09-14 23:26:00,
2013-09-14 19:27:00,72.3,47.3,30.06,North,357,0.0,0.0,41,0.00,,---,0.00,VWS V14.01,2013-09-14 23:27:00,
2013-09-14 19:30:00,71.8,47.5,30.06,North,357,0.0,0.0,42,0.00,,---,0.00,VWS V14.01,2013-09-14 23:30:00,
2013-09-14 19:31:00,71.8,47.5,30.06,North,357,0.0,0.0,42,0.00,,---,0.00,VWS V14.01,2013-09-14 23:31:00,
2013-09-14 19:32:00,71.8,47.5,30.06,North,357,0.0,0.0,42,0.00,,---,0.00,VWS V14.01,2013-09-14 23:32:00,
2013-09-14 19:35:00,71.8,47.5,30.06,North,357,0.0,0.0,42,0.00,,---,0.00,VWS V14.01,2013-09-14 23:35:00,
2013-09-14 19:36:00,71.8,47.5,30.06,North,357,0.0,0.0,42,0.00,,---,0.00,VWS V14.01,2013-09-14 23:36:00,
2013-09-14 19:37:00,71.8,47.5,30.06,North,357,0.0,0.0,42,0.00,,---,0.00,VWS V14.01,2013-09-14 23:37:00,
2013-09-14 19:40:00,71.2,47.6,30.06,North,357,0.0,0.0,43,0.00,,---,0.00,VWS V14.01,2013-09-14 23:40:00,
2013-09-14 19:41:00,71.2,47.6,30.06,North,357,0.0,0.0,43,0.00,,---,0.00,VWS V14.01,2013-09-14 23:41:00,
2013-09-14 19:42:00,71.2,47.6,30.06,North,357,0.0,0.0,43,0.00,,---,0.00,VWS V14.01,2013-09-14 23:42:00,
2013-09-14 19:45:00,71.1,48.1,30.06,North,357,0.0,0.0,44,0.00,,---,0.00,VWS V14.01,2013-09-14 23:45:00,
2013-09-14 19:46:00,71.1,48.1,30.06,North,357,0.0,0.0,44,0.00,,---,0.00,VWS V14.01,2013-09-14 23:46:00,
2013-09-14 19:47:00,71.1,48.1,30.06,North,357,0.0,0.0,44,0.00,,---,0.00,VWS V14.01,2013-09-14 23:47:00,
2013-09-14 19:51:00,71.1,48.1,30.06,North,357,0.0,0.0,44,0.00,,---,0.00,VWS V14.01,2013-09-14 23:51:00,
2013-09-14 19:52:00,71.1,48.1,30.06,North,357,0.0,0.0,44,0.00,,---,0.00,VWS V14.01,2013-09-14 23:52:00,
2013-09-14 19:56:00,70.9,47.9,30.06,North,357,0.0,0.0,44,0.00,,---,0.00,VWS V14.01,2013-09-14 23:56:00,
2013-09-14 19:57:00,70.9,47.9,30.06,North,357,0.0,0.0,44,0.00,,---,0.00,VWS V14.01,2013-09-14 23:57:00,
2013-09-14 20:01:00,70.9,47.9,30.06,North,357,0.0,0.0,44,0.00,,---,0.00,VWS V14.01,2013-09-15 00:01:00,
2013-09-14 20:02:00,70.9,47.9,30.06,North,357,0.0,0.0,44,0.00,,---,0.00,VWS V14.01,2013-09-15 00:02:00,
2013-09-14 20:03:00,70.9,47.9,30.06,North,357,0.0,0.0,44,0.00,,---,0.00,VWS V14.01,2013-09-15 00:03:00,
2013-09-14 20:06:00,70.5,48.2,30.06,North,357,0.0,0.0,45,0.00,,---,0.00,VWS V14.01,2013-09-15 00:06:00,
2013-09-14 20:07:00,70.5,48.2,30.06,North,357,0.0,0.0,45,0.00,,---,0.00,VWS V14.01,2013-09-15 00:07:00,
2013-09-14 20:08:00,70.5,48.2,30.09,North,357,0.0,0.0,45,0.00,,---,0.00,VWS V14.01,2013-09-15 00:08:00,
2013-09-14 20:11:00,70.5,48.2,30.09,North,357,0.0,0.0,45,0.00,,---,0.00,VWS V14.01,2013-09-15 00:11:00,
2013-09-14 20:12:00,70.5,48.2,30.09,North,357,0.0,0.0,45,0.00,,---,0.00,VWS V14.01,2013-09-15 00:12:00,
2013-09-14 20:13:00,70.5,48.2,30.09,North,357,0.0,0.0,45,0.00,,---,0.00,VWS V14.01,2013-09-15 00:13:00,
2013-09-14 20:16:00,70.2,47.8,30.09,North,357,0.0,0.0,45,0.00,,---,0.00,VWS V14.01,2013-09-15 00:16:00,
2013-09-14 20:17:00,70.2,47.8,30.09,North,357,0.0,0.0,45,0.00,,---,0.00,VWS V14.01,2013-09-15 00:17:00,
2013-09-14 20:18:00,70.2,47.8,30.09,North,357,0.0,0.0,45,0.00,,---,0.00,VWS V14.01,2013-09-15 00:18:00,
2013-09-14 20:21:00,70.2,47.8,30.09,North,357,0.0,0.0,45,0.00,,---,0.00,VWS V14.01,2013-09-15 00:21:00,
2013-09-14 20:22:00,70.2,47.8,30.09,North,357,0.0,0.0,45,0.00,,---,0.00,VWS V14.01,2013-09-15 00:22:00,
2013-09-14 20:23:00,70.2,47.8,30.09,North,357,0.0,0.0,45,0.00,,---,0.00,VWS V14.01,2013-09-15 00:23:00,
2013-09-14 20:26:00,70.2,47.8,30.09,North,357,0.0,0.0,45,0.00,,---,0.00,VWS V14.01,2013-09-15 00:26:00,
2013-09-14 20:27:00,69.8,47.5,30.09,North,357,0.0,0.0,45,0.00,,---,0.00,VWS V14.01,2013-09-15 00:27:00,
2013-09-14 20:28:00,69.8,47.5,30.09,North,357,0.0,0.0,45,0.00,,---,0.00,VWS V14.01,2013-09-15 00:28:00,
2013-09-14 20:31:00,69.8,47.5,30.09,North,357,0.0,0.0,45,0.00,,---,0.00,VWS V14.01,2013-09-15 00:31:00,
2013-09-14 20:32:00,69.8,47.5,30.09,North,357,0.0,0.0,45,0.00,,---,0.00,VWS V14.01,2013-09-15 00:32:00,
2013-09-14 20:33:00,69.8,47.5,30.09,North,357,0.0,0.0,45,0.00,,---,0.00,VWS V14.01,2013-09-15 00:33:00,
2013-09-14 20:34:00,69.6,48.5,30.09,North,357,0.0,0.0,47,0.00,,---,0.00,VWS V14.01,2013-09-15 00:34:00,
2013-09-14 20:36:00,69.6,48.5,30.09,North,357,0.0,0.0,47,0.00,,---,0.00,VWS V14.01,2013-09-15 00:36:00,
2013-09-14 20:37:00,69.6,48.5,30.09,North,357,0.0,0.0,47,0.00,,---,0.00,VWS V14.01,2013-09-15 00:37:00,
2013-09-14 20:38:00,69.6,48.5,30.09,North,357,0.0,0.0,47,0.00,,---,0.00,VWS V14.01,2013-09-15 00:38:00,
2013-09-14 20:39:00,69.6,48.5,30.09,North,357,0.0,0.0,47,0.00,,---,0.00,VWS V14.01,2013-09-15 00:39:00,
2013-09-14 20:41:00,69.4,48.3,30.09,North,357,0.0,0.0,47,0.00,,---,0.00,VWS V14.01,2013-09-15 00:41:00,
2013-09-14 20:42:00,69.4,48.3,30.09,North,357,0.0,0.0,47,0.00,,---,0.00,VWS V14.01,2013-09-15 00:42:00,
2013-09-14 20:43:00,69.4,48.9,30.09,North,357,0.0,0.0,48,0.00,,---,0.00,VWS V14.01,2013-09-15 00:43:00,
2013-09-14 20:44:00,69.4,48.9,30.09,North,357,0.0,0.0,48,0.00,,---,0.00,VWS V14.01,2013-09-15 00:44:00,
2013-09-14 20:46:00,69.4,48.9,30.09,North,357,0.0,0.0,48,0.00,,---,0.00,VWS V14.01,2013-09-15 00:46:00,
2013-09-14 20:47:00,69.4,48.9,30.09,North,357,0.0,0.0,48,0.00,,---,0.00,VWS V14.01,2013-09-15 00:47:00,
2013-09-14 20:48:00,69.4,48.9,30.09,North,357,0.0,0.0,48,0.00,,---,0.00,VWS V14.01,2013-09-15 00:48:00,
2013-09-14 20:49:00,69.4,48.9,30.09,North,357,0.0,0.0,48,0.00,,---,0.00,VWS V14.01,2013-09-15 00:49:00,
2013-09-14 20:51:00,69.3,49.3,30.09,North,357,0.0,0.0,49,0.00,,---,0.00,VWS V14.01,2013-09-15 00:51:00,
2013-09-14 20:52:00,69.3,49.3,30.09,North,357,0.0,0.0,49,0.00,,---,0.00,VWS V14.01,2013-09-15 00:52:00,
2013-09-14 20:53:00,69.3,49.3,30.09,North,357,0.0,0.0,49,0.00,,---,0.00,VWS V14.01,2013-09-15 00:53:00,
2013-09-14 20:54:00,69.3,49.3,30.09,North,357,0.0,0.0,49,0.00,,---,0.00,VWS V14.01,2013-09-15 00:54:00,
2013-09-14 20:57:00,69.3,49.3,30.09,North,357,0.0,0.0,49,0.00,,---,0.00,VWS V14.01,2013-09-15 00:57:00,
2013-09-14 20:58:00,69.3,49.3,30.09,North,357,0.0,0.0,49,0.00,,---,0.00,VWS V14.01,2013-09-15 00:58:00,
2013-09-14 20:59:00,69.3,49.3,30.09,North,357,0.0,0.0,49,0.00,,---,0.00,VWS V14.01,2013-09-15 00:59:00,
2013-09-14 21:02:00,69.3,49.3,30.09,North,357,0.0,0.0,49,0.00,,---,0.00,VWS V14.01,2013-09-15 01:02:00,
2013-09-14 21:03:00,69.3,49.3,30.09,North,357,0.0,0.0,49,0.00,,---,0.00,VWS V14.01,2013-09-15 01:03:00,
2013-09-14 21:04:00,69.3,49.3,30.09,North,357,0.0,0.0,49,0.00,,---,0.00,VWS V14.01,2013-09-15 01:04:00,
2013-09-14 21:07:00,69.4,48.9,30.09,North,357,0.0,0.0,48,0.00,,---,0.00,VWS V14.01,2013-09-15 01:07:00,
2013-09-14 21:08:00,69.4,48.9,30.09,NE,50,4.0,4.0,48,0.00,,---,0.00,VWS V14.01,2013-09-15 01:08:00,
2013-09-14 21:09:00,69.4,48.9,30.09,NE,50,4.0,4.0,48,0.00,,---,0.00,VWS V14.01,2013-09-15 01:09:00,
2013-09-14 21:10:00,69.4,48.9,30.09,NE,43,0.0,4.0,48,0.00,,---,0.00,VWS V14.01,2013-09-15 01:10:00,
2013-09-14 21:12:00,69.4,48.9,30.09,NE,43,0.0,0.0,48,0.00,,---,0.00,VWS V14.01,2013-09-15 01:12:00,
2013-09-14 21:13:00,69.4,48.9,30.09,North,8,0.0,0.0,48,0.00,,---,0.00,VWS V14.01,2013-09-15 01:13:00,
2013-09-14 21:14:00,69.4,48.9,30.09,NE,39,0.0,0.0,48,0.00,,---,0.00,VWS V14.01,2013-09-15 01:14:00,
2013-09-14 21:15:00,69.4,48.9,30.09,NE,39,0.0,0.0,48,0.00,,---,0.00,VWS V14.01,2013-09-15 01:15:00,
2013-09-14 21:17:00,69.4,48.9,30.09,NE,37,0.0,0.0,48,0.00,,---,0.00,VWS V14.01,2013-09-15 01:17:00,
2013-09-14 21:18:00,69.4,48.9,30.09,NE,37,0.0,0.0,48,0.00,,---,0.00,VWS V14.01,2013-09-15 01:18:00,
2013-09-14 21:19:00,69.4,48.9,30.09,ENE,62,3.6,3.6,48,0.00,,---,0.00,VWS V14.01,2013-09-15 01:19:00,
2013-09-14 21:20:00,69.4,48.9,30.09,NNE,29,2.7,3.6,48,0.00,,---,0.00,VWS V14.01,2013-09-15 01:20:00,
2013-09-14 21:22:00,69.3,48.8,30.09,NNE,29,2.7,2.7,48,0.00,,---,0.00,VWS V14.01,2013-09-15 01:22:00,
2013-09-14 21:23:00,69.3,48.8,30.09,NNE,29,2.7,2.7,48,0.00,,---,0.00,VWS V14.01,2013-09-15 01:23:00,
2013-09-14 21:24:00,69.3,48.8,30.09,NE,35,2.7,3.1,48,0.00,,---,0.00,VWS V14.01,2013-09-15 01:24:00,
2013-09-14 21:25:00,69.3,48.8,30.09,NE,35,2.7,2.7,48,0.00,,---,0.00,VWS V14.01,2013-09-15 01:25:00,
2013-09-14 21:27:00,69.3,48.8,30.09,East,79,3.6,6.3,48,0.00,,---,0.00,VWS V14.01,2013-09-15 01:27:00,
2013-09-14 21:28:00,69.3,48.8,30.09,NE,42,3.1,3.6,48,0.00,,---,0.00,VWS V14.01,2013-09-15 01:28:00,
2013-09-14 21:30:00,69.1,48.6,30.09,NE,45,2.2,3.1,48,0.00,,---,0.00,VWS V14.01,2013-09-15 01:30:00,
2013-09-14 21:32:00,69.1,48.6,30.09,NE,45,2.2,2.2,48,0.00,,---,0.00,VWS V14.01,2013-09-15 01:32:00,
2013-09-14 21:33:00,69.1,48.6,30.09,NE,45,2.2,2.2,48,0.00,,---,0.00,VWS V14.01,2013-09-15 01:33:00,
2013-09-14 21:34:00,69.1,48.6,30.09,North,11,0.0,2.2,48,0.00,,---,0.00,VWS V14.01,2013-09-15 01:34:00,
2013-09-14 21:35:00,69.1,48.6,30.09,North,11,0.0,0.0,48,0.00,,---,0.00,VWS V14.01,2013-09-15 01:35:00,
2013-09-14 21:37:00,68.9,49.0,30.12,NE,52,3.1,3.1,49,0.00,,---,0.00,VWS V14.01,2013-09-15 01:37:00,
2013-09-14 21:38:00,68.9,49.0,30.12,NE,52,3.1,3.1,49,0.00,,---,0.00,VWS V14.01,2013-09-15 01:38:00,
2013-09-14 21:39:00,68.9,49.0,30.12,NE,49,0.0,3.1,49,0.00,,---,0.00,VWS V14.01,2013-09-15 01:39:00,
2013-09-14 21:40:00,68.9,49.0,30.12,NE,49,0.0,0.0,49,0.00,,---,0.00,VWS V14.01,2013-09-15 01:40:00,
2013-09-14 21:42:00,68.7,48.8,30.12,North,0,0.0,0.0,49,0.00,,---,0.00,VWS V14.01,2013-09-15 01:42:00,
2013-09-14 21:43:00,68.7,48.8,30.12,North,0,0.0,0.0,49,0.00,,---,0.00,VWS V14.01,2013-09-15 01:43:00,
2013-09-14 21:44:00,68.7,48.8,30.12,North,0,0.0,0.0,49,0.00,,---,0.00,VWS V14.01,2013-09-15 01:44:00,
2013-09-14 21:45:00,68.7,48.8,30.12,North,0,0.0,0.0,49,0.00,,---,0.00,VWS V14.01,2013-09-15 01:45:00,
2013-09-14 21:47:00,68.7,49.3,30.12,ENE,63,3.1,3.1,50,0.00,,---,0.00,VWS V14.01,2013-09-15 01:47:00,
2013-09-14 21:48:00,68.5,49.2,30.12,ENE,61,0.0,0.0,50,0.00,,---,0.00,VWS V14.01,2013-09-15 01:48:00,
2013-09-14 21:50:00,68.5,49.2,30.12,NNE,29,4.9,4.9,50,0.00,,---,0.00,VWS V14.01,2013-09-15 01:50:00,
2013-09-14 21:52:00,68.5,49.2,30.12,NNE,28,0.0,3.1,50,0.00,,---,0.00,VWS V14.01,2013-09-15 01:52:00,
2013-09-14 21:53:00,68.5,49.2,30.12,NNE,28,0.0,0.0,50,0.00,,---,0.00,VWS V14.01,2013-09-15 01:53:00,
2013-09-14 21:55:00,68.5,49.2,30.12,East,100,4.0,4.0,50,0.00,,---,0.00,VWS V14.01,2013-09-15 01:55:00,
2013-09-14 21:57:00,68.4,49.5,30.12,NE,44,3.1,4.0,51,0.00,,---,0.00,VWS V14.01,2013-09-15 01:57:00,
2013-09-14 21:58:00,68.4,49.5,30.12,NE,44,3.1,3.1,51,0.00,,---,0.00,VWS V14.01,2013-09-15 01:58:00,
2013-09-14 22:00:00,68.4,49.5,30.12,East,97,3.1,3.1,51,0.00,,---,0.00,VWS V14.01,2013-09-15 02:00:00,
2013-09-14 22:01:00,68.2,49.9,30.12,East,97,3.1,3.1,52,0.00,,---,0.00,VWS V14.01,2013-09-15 02:01:00,
2013-09-14 22:02:00,68.2,49.9,30.12,ESE,109,0.0,0.0,52,0.00,,---,0.00,VWS V14.01,2013-09-15 02:02:00,
2013-09-14 22:03:00,68.2,49.9,30.12,ESE,109,0.0,0.0,52,0.00,,---,0.00,VWS V14.01,2013-09-15 02:03:00,
2013-09-14 22:05:00,68.2,49.9,30.12,East,93,6.3,6.3,52,0.00,,---,0.00,VWS V14.01,2013-09-15 02:05:00,
2013-09-14 22:06:00,68.2,49.9,30.12,NE,51,3.1,3.1,52,0.00,,---,0.00,VWS V14.01,2013-09-15 02:06:00,
2013-09-14 22:07:00,68.2,49.9,30.12,NE,51,3.1,3.1,52,0.00,,---,0.00,VWS V14.01,2013-09-15 02:07:00,
2013-09-14 22:08:00,68.2,49.9,30.12,NNE,33,2.7,4.0,52,0.00,,---,0.00,VWS V14.01,2013-09-15 02:08:00,
2013-09-14 22:10:00,68.0,50.2,30.12,NNE,33,2.7,2.7,53,0.00,,---,0.00,VWS V14.01,2013-09-15 02:10:00,
2013-09-14 22:11:00,68.0,50.2,30.12,NNE,33,2.7,2.7,53,0.00,,---,0.00,VWS V14.01,2013-09-15 02:11:00,
2013-09-14 22:12:00,68.0,50.2,30.12,NNE,33,2.7,2.7,53,0.00,,---,0.00,VWS V14.01,2013-09-15 02:12:00,
2013-09-14 22:14:00,68.0,50.2,30.12,NE,45,3.1,3.1,53,0.00,,---,0.00,VWS V14.01,2013-09-15 02:14:00,
2013-09-14 22:16:00,68.0,50.2,30.12,ENE,60,3.6,4.0,53,0.00,,---,0.00,VWS V14.01,2013-09-15 02:16:00,
2013-09-14 22:17:00,67.8,50.6,30.12,ENE,75,0.0,0.0,54,0.00,,---,0.00,VWS V14.01,2013-09-15 02:17:00,
2013-09-14 22:18:00,67.8,50.6,30.12,ENE,75,0.0,0.0,54,0.00,,---,0.00,VWS V14.01,2013-09-15 02:18:00,
2013-09-14 22:19:00,67.8,50.6,30.12,ENE,78,0.0,0.0,54,0.00,,---,0.00,VWS V14.01,2013-09-15 02:19:00,
2013-09-14 22:21:00,67.8,50.6,30.12,NNE,23,4.0,4.0,54,0.00,,---,0.00,VWS V14.01,2013-09-15 02:21:00,
2013-09-14 22:22:00,67.8,50.6,30.12,NE,48,4.0,4.0,54,0.00,,---,0.00,VWS V14.01,2013-09-15 02:22:00,
2013-09-14 22:23:00,67.8,50.6,30.12,North,8,4.0,4.0,54,0.00,,---,0.00,VWS V14.01,2013-09-15 02:23:00,
2013-09-14 22:24:00,67.8,50.6,30.12,North,8,4.0,4.0,54,0.00,,---,0.00,VWS V14.01,2013-09-15 02:24:00,
2013-09-14 22:26:00,67.8,50.6,30.12,NNE,27,3.1,3.1,54,0.00,,---,0.00,VWS V14.01,2013-09-15 02:26:00,
2013-09-14 22:27:00,67.8,50.6,30.12,NNE,27,3.1,3.1,54,0.00,,---,0.00,VWS V14.01,2013-09-15 02:27:00,
2013-09-14 22:28:00,67.8,50.6,30.12,NNE,27,3.1,3.1,54,0.00,,---,0.00,VWS V14.01,2013-09-15 02:28:00,
2013-09-14 22:29:00,67.8,50.6,30.12,NNE,27,3.1,3.1,54,0.00,,---,0.00,VWS V14.01,2013-09-15 02:29:00,
2013-09-14 22:31:00,67.8,50.6,30.12,NNE,25,2.2,4.0,54,0.00,,---,0.00,VWS V14.01,2013-09-15 02:31:00,
2013-09-14 22:32:00,67.8,50.6,30.12,NNE,24,4.0,4.0,54,0.00,,---,0.00,VWS V14.01,2013-09-15 02:32:00,
2013-09-14 22:33:00,67.8,50.6,30.12,NNE,24,4.0,4.0,54,0.00,,---,0.00,VWS V14.01,2013-09-15 02:33:00,
2013-09-14 22:34:00,67.8,51.1,30.12,NNE,24,4.0,4.0,55,0.00,,---,0.00,VWS V14.01,2013-09-15 02:34:00,
2013-09-14 22:36:00,67.8,51.1,30.12,NE,38,3.1,3.1,55,0.00,,---,0.00,VWS V14.01,2013-09-15 02:36:00,
2013-09-14 22:37:00,67.8,51.1,30.12,NNE,27,3.1,3.1,55,0.00,,---,0.00,VWS V14.01,2013-09-15 02:37:00,
2013-09-14 22:38:00,67.8,51.1,30.12,NNE,27,3.1,3.1,55,0.00,,---,0.00,VWS V14.01,2013-09-15 02:38:00,
2013-09-14 22:39:00,67.8,50.6,30.12,NNE,27,3.1,3.1,54,0.00,,---,0.00,VWS V14.01,2013-09-15 02:39:00,
2013-09-14 22:41:00,67.8,51.1,30.12,NE,45,2.2,3.1,55,0.00,,---,0.00,VWS V14.01,2013-09-15 02:41:00,
2013-09-14 22:42:00,67.8,51.1,30.12,NE,45,3.1,3.1,55,0.00,,---,0.00,VWS V14.01,2013-09-15 02:42:00,
2013-09-14 22:43:00,67.8,51.1,30.12,NE,45,3.1,3.1,55,0.00,,---,0.00,VWS V14.01,2013-09-15 02:43:00,
2013-09-14 22:44:00,67.8,51.1,30.12,NNE,23,2.7,3.1,55,0.00,,---,0.00,VWS V14.01,2013-09-15 02:44:00,
2013-09-14 22:47:00,67.8,51.1,30.12,North,9,4.0,4.0,55,0.00,,---,0.00,VWS V14.01,2013-09-15 02:47:00,
2013-09-14 22:48:00,67.6,50.4,30.12,North,9,4.0,4.0,54,0.00,,---,0.00,VWS V14.01,2013-09-15 02:48:00,
2013-09-14 22:49:00,67.6,50.4,30.12,North,9,4.0,4.0,54,0.00,,---,0.00,VWS V14.01,2013-09-15 02:49:00,
2013-09-14 22:52:00,67.6,50.4,30.12,NNE,15,2.7,2.7,54,0.00,,---,0.00,VWS V14.01,2013-09-15 02:52:00,
2013-09-14 22:53:00,67.6,50.4,30.12,North,0,2.7,2.7,54,0.00,,---,0.00,VWS V14.01,2013-09-15 02:53:00,
2013-09-14 22:54:00,67.6,50.4,30.12,North,0,2.7,2.7,54,0.00,,---,0.00,VWS V14.01,2013-09-15 02:54:00,
2013-09-14 22:57:00,67.6,50.4,30.12,North,0,0.0,0.0,54,0.00,,---,0.00,VWS V14.01,2013-09-15 02:57:00,
2013-09-14 22:58:00,67.6,50.4,30.12,North,353,0.0,0.0,54,0.00,,---,0.00,VWS V14.01,2013-09-15 02:58:00,
2013-09-14 22:59:00,67.5,50.2,30.12,North,353,0.0,0.0,54,0.00,,---,0.00,VWS V14.01,2013-09-15 02:59:00,
2013-09-14 23:02:00,67.5,50.2,30.12,North,353,0.0,0.0,54,0.00,,---,0.00,VWS V14.01,2013-09-15 03:02:00,
2013-09-14 23:03:00,67.5,50.2,30.12,North,353,0.0,0.0,54,0.00,,---,0.00,VWS V14.01,2013-09-15 03:03:00,
2013-09-14 23:04:00,67.3,50.6,30.12,North,353,0.0,0.0,55,0.00,,---,0.00,VWS V14.01,2013-09-15 03:04:00,
2013-09-14 23:07:00,67.3,50.6,30.12,NNW,337,0.0,0.0,55,0.00,,---,0.00,VWS V14.01,2013-09-15 03:07:00,
2013-09-14 23:08:00,67.3,50.6,30.12,NNW,337,0.0,0.0,55,0.00,,---,0.00,VWS V14.01,2013-09-15 03:08:00,
2013-09-14 23:09:00,67.3,50.6,30.12,North,357,0.0,0.0,55,0.00,,---,0.00,VWS V14.01,2013-09-15 03:09:00,
2013-09-14 23:12:00,67.1,50.4,30.12,NNW,328,0.0,0.0,55,0.00,,---,0.00,VWS V14.01,2013-09-15 03:12:00,
2013-09-14 23:13:00,67.1,50.4,30.12,NNW,328,0.0,0.0,55,0.00,,---,0.00,VWS V14.01,2013-09-15 03:13:00,
2013-09-14 23:14:00,67.1,50.4,30.12,NNW,328,0.0,0.0,55,0.00,,---,0.00,VWS V14.01,2013-09-15 03:14:00,
2013-09-14 23:17:00,67.1,50.4,30.12,ENE,72,0.0,0.0,55,0.00,,---,0.00,VWS V14.01,2013-09-15 03:17:00,
2013-09-14 23:18:00,67.1,50.4,30.12,ENE,72,0.0,0.0,55,0.00,,---,0.00,VWS V14.01,2013-09-15 03:18:00,
2013-09-14 23:19:00,66.7,51.0,30.12,NE,36,5.8,5.8,57,0.00,,---,0.00,VWS V14.01,2013-09-15 03:19:00,
2013-09-14 23:22:00,66.7,51.0,30.12,NNW,335,3.1,3.1,57,0.00,,---,0.00,VWS V14.01,2013-09-15 03:22:00,
2013-09-14 23:23:00,66.7,51.0,30.12,NNW,335,3.1,3.1,57,0.00,,---,0.00,VWS V14.01,2013-09-15 03:23:00,
2013-09-14 23:24:00,66.7,51.0,30.12,NNW,333,2.7,2.7,57,0.00,,---,0.00,VWS V14.01,2013-09-15 03:24:00,
2013-09-14 23:27:00,66.6,51.3,30.12,NNE,21,0.0,2.2,58,0.00,,---,0.00,VWS V14.01,2013-09-15 03:27:00,
2013-09-14 23:28:00,66.6,51.3,30.12,NNE,21,0.0,0.0,58,0.00,,---,0.00,VWS V14.01,2013-09-15 03:28:00,
2013-09-14 23:29:00,66.6,51.3,30.12,NNE,21,0.0,0.0,58,0.00,,---,0.00,VWS V14.01,2013-09-15 03:29:00,
2013-09-14 23:30:00,66.6,51.3,30.12,NNE,21,0.0,0.0,58,0.00,,---,0.00,VWS V14.01,2013-09-15 03:30:00,
2013-09-14 23:32:00,66.6,51.3,30.12,NNE,21,0.0,0.0,58,0.00,,---,0.00,VWS V14.01,2013-09-15 03:32:00,
2013-09-14 23:33:00,66.6,51.3,30.12,NNE,31,0.0,0.0,58,0.00,,---,0.00,VWS V14.01,2013-09-15 03:33:00,
2013-09-14 23:34:00,66.4,51.6,30.12,NNE,31,0.0,0.0,59,0.00,,---,0.00,VWS V14.01,2013-09-15 03:34:00,
2013-09-14 23:35:00,66.4,51.6,30.12,NNE,31,0.0,0.0,59,0.00,,---,0.00,VWS V14.01,2013-09-15 03:35:00,
2013-09-14 23:37:00,66.4,51.6,30.12,NNE,31,0.0,0.0,59,0.00,,---,0.00,VWS V14.01,2013-09-15 03:37:00,
2013-09-14 23:38:00,66.4,51.6,30.12,North,353,0.0,0.0,59,0.00,,---,0.00,VWS V14.01,2013-09-15 03:38:00,
2013-09-14 23:39:00,66.4,51.6,30.12,North,353,0.0,0.0,59,0.00,,---,0.00,VWS V14.01,2013-09-15 03:39:00,
2013-09-14 23:40:00,66.4,51.6,30.12,North,353,0.0,0.0,59,0.00,,---,0.00,VWS V14.01,2013-09-15 03:40:00,
2013-09-14 23:42:00,66.4,51.6,30.12,North,353,0.0,0.0,59,0.00,,---,0.00,VWS V14.01,2013-09-15 03:42:00,
2013-09-14 23:43:00,66.4,51.6,30.12,North,0,0.0,0.0,59,0.00,,---,0.00,VWS V14.01,2013-09-15 03:43:00,
2013-09-14 23:44:00,66.4,51.6,30.12,North,0,0.0,0.0,59,0.00,,---,0.00,VWS V14.01,2013-09-15 03:44:00,
2013-09-14 23:45:00,66.2,51.9,30.12,North,0,0.0,0.0,60,0.00,,---,0.00,VWS V14.01,2013-09-15 03:45:00,
2013-09-14 23:47:00,66.2,51.9,30.12,NW,317,3.1,3.1,60,0.00,,---,0.00,VWS V14.01,2013-09-15 03:47:00,
2013-09-14 23:48:00,66.2,51.9,30.12,NW,317,3.1,3.1,60,0.00,,---,0.00,VWS V14.01,2013-09-15 03:48:00,
2013-09-14 23:49:00,66.2,51.9,30.12,NW,317,3.1,3.1,60,0.00,,---,0.00,VWS V14.01,2013-09-15 03:49:00,
2013-09-14 23:50:00,66.2,51.9,30.12,NNW,342,0.0,0.0,60,0.00,,---,0.00,VWS V14.01,2013-09-15 03:50:00,
2013-09-14 23:52:00,66.2,51.9,30.12,North,5,0.0,0.0,60,0.00,,---,0.00,VWS V14.01,2013-09-15 03:52:00,
2013-09-14 23:53:00,66.2,51.9,30.12,North,5,0.0,0.0,60,0.00,,---,0.00,VWS V14.01,2013-09-15 03:53:00,
2013-09-14 23:54:00,66.2,51.9,30.12,North,0,3.1,3.1,60,0.00,,---,0.00,VWS V14.01,2013-09-15 03:54:00,
2013-09-14 23:55:00,66.2,51.9,30.12,North,0,3.1,3.1,60,0.00,,---,0.00,VWS V14.01,2013-09-15 03:55:00,
2013-09-14 23:58:00,66.0,52.6,30.12,North,0,3.1,3.1,62,0.00,,---,0.00,VWS V14.01,2013-09-15 03:58:00,
2013-09-14 23:59:00,66.0,52.6,30.12,NW,321,4.0,4.0,62,0.00,,---,0.00,VWS V14.01,2013-09-15 03:59:00,